Weather Underground® Station Historical Data


Station Historical Data For Bruceton, TN. (K3JAE's Weather Station - KTNBRUCE2)
Daily Summary for:  January 2, 2018 Units:  Both    English   Metric
« Previous Day
Next Day »
Daily Weekly Monthly Yearly Custom
  High: Low: Average:
Temperature: 23.6 °F /  -4.7 °C 4.3 °F /  -15.4 °C 13.5 °F /  -10.3 °C
Dew Point: 11.9 °F /  -11.2 °C -2.0 °F /  -18.9 °C 3.1 °F /  -16.1 °C
Humidity: 82% 43% 64%
Wind Speed: 9.2mph /  14.8km/h - 2.2mph /  3.5km/h
Wind Gust: 9.2mph /  14.8km/h - -
Wind- - ENE
Pressure: 30.82 in /  1043.6 hPa 30.44 in /  1030.7 hPa -
Precipitation: 0.00 in /  0 mm    
Historical Graphs
 
 
Tabular Data for:  January 2, 2018
Time Temperature Dew Point Pressure Wind Wind Speed Wind Gust Humidity Rainfall Rate (Hourly) solar Conditions
00:01 8.5 °F /  -13.1 °C -1.2 °F /  -18.4 °C 30.79in /  1042.5hPa NE 8.1mph /  13km/h 8.1mph /  13km/h 64% 0.00in /  0mm 0.0 W/m2 CLR
00:02 8.5 °F /  -13.1 °C -1.2 °F /  -18.4 °C 30.79in /  1042.5hPa NE 8.1mph /  13km/h 8.1mph /  13km/h 64% 0.00in /  0mm 0.0 W/m2 CLR
00:07 8.4 °F /  -13.1 °C -1.3 °F /  -18.5 °C 30.79in /  1042.5hPa NNE 3.5mph /  5.6km/h 3.5mph /  5.6km/h 64% 0.00in /  0mm 0.0 W/m2 CLR
00:10 8.4 °F /  -13.1 °C -1.3 °F /  -18.5 °C 30.79in /  1042.5hPa ENE 4.0mph /  6.4km/h 4.0mph /  6.4km/h 64% 0.00in /  0mm 0.0 W/m2 CLR
00:14 8.4 °F /  -13.1 °C -1.3 °F /  -18.5 °C 30.79in /  1042.5hPa ENE 3.5mph /  5.6km/h 3.5mph /  5.6km/h 64% 0.00in /  0mm 0.0 W/m2 CLR
00:17 8.4 °F /  -13.1 °C -1.6 °F /  -18.7 °C 30.79in /  1042.5hPa ENE 5.8mph /  9.3km/h 5.8mph /  9.3km/h 63% 0.00in /  0mm 0.0 W/m2 CLR
00:19 8.3 °F /  -13.2 °C -1.7 °F /  -18.7 °C 30.79in /  1042.5hPa ENE 4.0mph /  6.4km/h 4.0mph /  6.4km/h 63% 0.00in /  0mm 0.0 W/m2 CLR
00:23 8.3 °F /  -13.2 °C -1.4 °F /  -18.6 °C 30.79in /  1042.5hPa ENE 3.5mph /  5.6km/h 3.5mph /  5.6km/h 64% 0.00in /  0mm 0.0 W/m2 CLR
00:26 8.3 °F /  -13.2 °C -1.4 °F /  -18.6 °C 30.79in /  1042.5hPa ENE 4.6mph /  7.4km/h 4.6mph /  7.4km/h 64% 0.00in /  0mm 0.0 W/m2 CLR
00:30 8.2 °F /  -13.2 °C -1.5 °F /  -18.6 °C 30.79in /  1042.5hPa ENE 2.3mph /  3.7km/h 2.3mph /  3.7km/h 64% 0.00in /  0mm 0.0 W/m2 CLR
00:34 8.1 °F /  -13.3 °C -1.2 °F /  -18.4 °C 30.79in /  1042.5hPa ENE 3.5mph /  5.6km/h 3.5mph /  5.6km/h 65% 0.00in /  0mm 0.0 W/m2 CLR
00:39 8.1 °F /  -13.3 °C -1.6 °F /  -18.7 °C 30.79in /  1042.5hPa ENE 1.2mph /  1.9km/h 1.2mph /  1.9km/h 64% 0.00in /  0mm 0.0 W/m2 CLR
00:40 8.1 °F /  -13.3 °C -1.2 °F /  -18.4 °C 30.79in /  1042.5hPa ENE 2.0mph /  3.2km/h 2.0mph /  3.2km/h 65% 0.00in /  0mm 0.0 W/m2 CLR
00:45 8.0 °F /  -13.3 °C -1.3 °F /  -18.5 °C 30.79in /  1042.5hPa ENE 3.5mph /  5.6km/h 3.5mph /  5.6km/h 65% 0.00in /  0mm 0.0 W/m2 CLR
00:46 8.0 °F /  -13.3 °C -1.3 °F /  -18.5 °C 30.79in /  1042.5hPa ENE 3.5mph /  5.6km/h 3.5mph /  5.6km/h 65% 0.00in /  0mm 0.0 W/m2 CLR
00:51 8.0 °F /  -13.3 °C -1.3 °F /  -18.5 °C 30.79in /  1042.5hPa ENE 4.0mph /  6.4km/h 4.0mph /  6.4km/h 65% 0.00in /  0mm 0.0 W/m2 CLR
00:56 7.9 °F /  -13.4 °C -1.8 °F /  -18.8 °C 30.79in /  1042.5hPa ENE 3.5mph /  5.6km/h 3.5mph /  5.6km/h 64% 0.00in /  0mm 0.0 W/m2 CLR
00:57 7.9 °F /  -13.4 °C -1.4 °F /  -18.6 °C 30.79in /  1042.5hPa ENE 5.0mph /  8km/h 5.0mph /  8km/h 65% 0.00in /  0mm 0.0 W/m2 CLR
01:02 7.9 °F /  -13.4 °C -1.4 °F /  -18.6 °C 30.79in /  1042.5hPa ENE 3.5mph /  5.6km/h 3.5mph /  5.6km/h 65% 0.00in /  0mm 0.0 W/m2 CLR
01:08 7.8 °F /  -13.4 °C -1.5 °F /  -18.6 °C 30.79in /  1042.5hPa NNE 5.8mph /  9.3km/h 5.8mph /  9.3km/h 65% 0.00in /  0mm 0.0 W/m2 CLR
01:13 7.8 °F /  -13.4 °C -1.9 °F /  -18.8 °C 30.79in /  1042.5hPa NNE 4.6mph /  7.4km/h 4.6mph /  7.4km/h 64% 0.00in /  0mm 0.0 W/m2 CLR
01:16 7.8 °F /  -13.4 °C -1.5 °F /  -18.6 °C 30.79in /  1042.5hPa NE 3.5mph /  5.6km/h 3.5mph /  5.6km/h 65% 0.00in /  0mm 0.0 W/m2 CLR
01:21 7.8 °F /  -13.4 °C -1.9 °F /  -18.8 °C 30.79in /  1042.5hPa NE 3.5mph /  5.6km/h 3.5mph /  5.6km/h 64% 0.00in /  0mm 0.0 W/m2 CLR
01:25 7.8 °F /  -13.4 °C -1.9 °F /  -18.8 °C 30.80in /  1042.9hPa NE 3.5mph /  5.6km/h 3.5mph /  5.6km/h 64% 0.00in /  0mm 0.0 W/m2 CLR
01:30 7.8 °F /  -13.4 °C -1.9 °F /  -18.8 °C 30.80in /  1042.9hPa NE 2.3mph /  3.7km/h 2.3mph /  3.7km/h 64% 0.00in /  0mm 0.0 W/m2 CLR
01:32 7.8 °F /  -13.4 °C -1.5 °F /  -18.6 °C 30.80in /  1042.9hPa NE 1.2mph /  1.9km/h 1.2mph /  1.9km/h 65% 0.00in /  0mm 0.0 W/m2 CLR
01:34 7.8 °F /  -13.4 °C -1.9 °F /  -18.8 °C 30.80in /  1042.9hPa NE 3.5mph /  5.6km/h 3.5mph /  5.6km/h 64% 0.00in /  0mm 0.0 W/m2 CLR
01:39 7.8 °F /  -13.4 °C -1.9 °F /  -18.8 °C 30.80in /  1042.9hPa NE 3.5mph /  5.6km/h 3.5mph /  5.6km/h 64% 0.00in /  0mm 0.0 W/m2 CLR
01:41 7.8 °F /  -13.4 °C -1.9 °F /  -18.8 °C 30.80in /  1042.9hPa NE 3.5mph /  5.6km/h 3.5mph /  5.6km/h 64% 0.00in /  0mm 0.0 W/m2 CLR
01:44 7.8 °F /  -13.4 °C -1.9 °F /  -18.8 °C 30.80in /  1042.9hPa NE 3.5mph /  5.6km/h 3.5mph /  5.6km/h 64% 0.00in /  0mm 0.0 W/m2 CLR
01:47 7.7 °F /  -13.5 °C -2.0 °F /  -18.9 °C 30.80in /  1042.9hPa NE 9.2mph /  14.8km/h 9.2mph /  14.8km/h 64% 0.00in /  0mm 0.0 W/m2 CLR
01:52 7.7 °F /  -13.5 °C -2.0 °F /  -18.9 °C 30.81in /  1043.2hPa NE 5.0mph /  8km/h 5.0mph /  8km/h 64% 0.00in /  0mm 0.0 W/m2 CLR
01:57 7.7 °F /  -13.5 °C -1.6 °F /  -18.7 °C 30.81in /  1043.2hPa NE 3.5mph /  5.6km/h 3.5mph /  5.6km/h 65% 0.00in /  0mm 0.0 W/m2 CLR
02:02 7.7 °F /  -13.5 °C -1.6 °F /  -18.7 °C 30.81in /  1043.2hPa NE 3.5mph /  5.6km/h 3.5mph /  5.6km/h 65% 0.00in /  0mm 0.0 W/m2 CLR
02:04 7.7 °F /  -13.5 °C -1.6 °F /  -18.7 °C 30.81in /  1043.2hPa NE 4.6mph /  7.4km/h 4.6mph /  7.4km/h 65% 0.00in /  0mm 0.0 W/m2 CLR
02:08 7.7 °F /  -13.5 °C -1.6 °F /  -18.7 °C 30.81in /  1043.2hPa NE 2.3mph /  3.7km/h 2.3mph /  3.7km/h 65% 0.00in /  0mm 0.0 W/m2 CLR
02:10 7.7 °F /  -13.5 °C -1.6 °F /  -18.7 °C 30.82in /  1043.6hPa NE 2.0mph /  3.2km/h 2.0mph /  3.2km/h 65% 0.00in /  0mm 0.0 W/m2 CLR
02:15 7.6 °F /  -13.6 °C -1.4 °F /  -18.6 °C 30.82in /  1043.6hPa NE 1.2mph /  1.9km/h 1.2mph /  1.9km/h 66% 0.00in /  0mm 0.0 W/m2 CLR
02:17 7.5 °F /  -13.6 °C -1.5 °F /  -18.6 °C 30.82in /  1043.6hPa NE 1.2mph /  1.9km/h 1.2mph /  1.9km/h 66% 0.00in /  0mm 0.0 W/m2 CLR
02:22 7.4 °F /  -13.7 °C -1.6 °F /  -18.7 °C 30.82in /  1043.6hPa NE 1.2mph /  1.9km/h   66% 0.00in /  0mm 0.0 W/m2 CLR
02:23 7.4 °F /  -13.7 °C -1.6 °F /  -18.7 °C 30.82in /  1043.6hPa NE 1.0mph /  1.6km/h   66% 0.00in /  0mm 0.0 W/m2 CLR
02:29 7.1 °F /  -13.8 °C -1.9 °F /  -18.8 °C 30.81in /  1043.2hPa NE 1.2mph /  1.9km/h 1.2mph /  1.9km/h 66% 0.00in /  0mm 0.0 W/m2 CLR
02:34 7.0 °F /  -13.9 °C -1.7 °F /  -18.7 °C 30.81in /  1043.2hPa Calm   0.3mph /  0.5km/h 67% 0.00in /  0mm 0.0 W/m2 CLR
02:35 7.0 °F /  -13.9 °C -1.3 °F /  -18.5 °C 30.81in /  1043.2hPa NE 2.3mph /  3.7km/h 2.3mph /  3.7km/h 68% 0.00in /  0mm 0.0 W/m2 CLR
02:40 6.8 °F /  -14 °C -1.5 °F /  -18.6 °C 30.81in /  1043.2hPa NE 2.3mph /  3.7km/h 2.3mph /  3.7km/h 68% 0.00in /  0mm 0.0 W/m2 CLR
02:45 6.7 °F /  -14.1 °C -1.3 °F /  -18.5 °C 30.81in /  1043.2hPa NE 2.3mph /  3.7km/h 2.3mph /  3.7km/h 69% 0.00in /  0mm 0.0 W/m2 CLR
02:47 6.7 °F /  -14.1 °C -1.3 °F /  -18.5 °C 30.81in /  1043.2hPa NE 2.3mph /  3.7km/h 2.3mph /  3.7km/h 69% 0.00in /  0mm 0.0 W/m2 CLR
02:49 6.6 °F /  -14.1 °C -1.4 °F /  -18.6 °C 30.81in /  1043.2hPa NE 1.2mph /  1.9km/h 1.2mph /  1.9km/h 69% 0.00in /  0mm 0.0 W/m2 CLR
02:54 6.5 °F /  -14.2 °C -1.2 °F /  -18.4 °C 30.81in /  1043.2hPa NE 1.2mph /  1.9km/h   70% 0.00in /  0mm 0.0 W/m2 CLR
02:59 6.4 °F /  -14.2 °C -1.3 °F /  -18.5 °C 30.81in /  1043.2hPa Calm     70% 0.00in /  0mm 0.0 W/m2 CLR
03:02 6.3 °F /  -14.3 °C -1.1 °F /  -18.4 °C 30.81in /  1043.2hPa Calm     71% 0.00in /  0mm 0.0 W/m2 CLR
03:04 6.2 °F /  -14.3 °C -1.2 °F /  -18.4 °C 30.81in /  1043.2hPa Calm     71% 0.00in /  0mm 0.0 W/m2 CLR
03:08 6.1 °F /  -14.4 °C -1.3 °F /  -18.5 °C 30.81in /  1043.2hPa Calm     71% 0.00in /  0mm 0.0 W/m2 CLR
03:13 6.0 °F /  -14.4 °C -1.4 °F /  -18.6 °C 30.81in /  1043.2hPa NE 2.3mph /  3.7km/h 2.3mph /  3.7km/h 71% 0.00in /  0mm 0.0 W/m2 CLR
03:14 6.0 °F /  -14.4 °C -1.4 °F /  -18.6 °C 30.81in /  1043.2hPa NE 1.2mph /  1.9km/h 1.2mph /  1.9km/h 71% 0.00in /  0mm 0.0 W/m2 CLR
03:19 5.9 °F /  -14.5 °C -1.5 °F /  -18.6 °C 30.81in /  1043.2hPa NE 2.0mph /  3.2km/h 2.0mph /  3.2km/h 71% 0.00in /  0mm 0.0 W/m2 CLR
03:20 5.9 °F /  -14.5 °C -1.2 °F /  -18.4 °C 30.81in /  1043.2hPa NE 2.3mph /  3.7km/h 2.3mph /  3.7km/h 72% 0.00in /  0mm 0.0 W/m2 CLR
03:25 5.8 °F /  -14.6 °C -1.3 °F /  -18.5 °C 30.81in /  1043.2hPa Calm     72% 0.00in /  0mm 0.0 W/m2 CLR
03:26 5.8 °F /  -14.6 °C -1.3 °F /  -18.5 °C 30.81in /  1043.2hPa Calm     72% 0.00in /  0mm 0.0 W/m2 CLR
03:31 5.8 °F /  -14.6 °C -1.0 °F /  -18.3 °C 30.81in /  1043.2hPa Calm     73% 0.00in /  0mm 0.0 W/m2 CLR
03:34 5.8 °F /  -14.6 °C -1.0 °F /  -18.3 °C 30.81in /  1043.2hPa Calm     73% 0.00in /  0mm 0.0 W/m2 CLR
03:37 5.7 °F /  -14.6 °C -1.1 °F /  -18.4 °C 30.81in /  1043.2hPa Calm     73% 0.00in /  0mm 0.0 W/m2 CLR
03:39 5.7 °F /  -14.6 °C -1.1 °F /  -18.4 °C 30.81in /  1043.2hPa Calm     73% 0.00in /  0mm 0.0 W/m2 CLR
03:44 5.7 °F /  -14.6 °C -1.1 °F /  -18.4 °C 30.81in /  1043.2hPa Calm     73% 0.00in /  0mm 0.0 W/m2 CLR
03:48 5.6 °F /  -14.7 °C -1.2 °F /  -18.4 °C 30.81in /  1043.2hPa Calm     73% 0.00in /  0mm 0.0 W/m2 CLR
03:51 5.6 °F /  -14.7 °C -1.2 °F /  -18.4 °C 30.81in /  1043.2hPa Calm     73% 0.00in /  0mm 0.0 W/m2 CLR
03:53 5.6 °F /  -14.7 °C -1.2 °F /  -18.4 °C 30.80in /  1042.9hPa Calm     73% 0.00in /  0mm 0.0 W/m2 CLR
03:54 5.5 °F /  -14.7 °C -1.3 °F /  -18.5 °C 30.80in /  1042.9hPa Calm     73% 0.00in /  0mm 0.0 W/m2 CLR
03:58 5.5 °F /  -14.7 °C -1.0 °F /  -18.3 °C 30.80in /  1042.9hPa Calm     74% 0.00in /  0mm 0.0 W/m2 CLR
04:00 5.4 °F /  -14.8 °C -1.1 °F /  -18.4 °C 30.80in /  1042.9hPa NE 1.2mph /  1.9km/h 1.2mph /  1.9km/h 74% 0.00in /  0mm 0.0 W/m2 CLR
04:05 5.4 °F /  -14.8 °C -1.1 °F /  -18.4 °C 30.80in /  1042.9hPa NE 2.3mph /  3.7km/h 2.3mph /  3.7km/h 74% 0.00in /  0mm 0.0 W/m2 CLR
04:10 5.4 °F /  -14.8 °C -1.1 °F /  -18.4 °C 30.80in /  1042.9hPa NE 2.3mph /  3.7km/h 2.3mph /  3.7km/h 74% 0.00in /  0mm 0.0 W/m2 CLR
04:15 5.5 °F /  -14.7 °C -1.0 °F /  -18.3 °C 30.80in /  1042.9hPa NE 1.2mph /  1.9km/h 1.2mph /  1.9km/h 74% 0.00in /  0mm 0.0 W/m2 CLR
04:16 5.4 °F /  -14.8 °C -1.1 °F /  -18.4 °C 30.80in /  1042.9hPa NE 1.2mph /  1.9km/h 1.2mph /  1.9km/h 74% 0.00in /  0mm 0.0 W/m2 CLR
04:21 5.4 °F /  -14.8 °C -0.8 °F /  -18.2 °C 30.80in /  1042.9hPa Calm     75% 0.00in /  0mm 0.0 W/m2 CLR
04:24 5.3 °F /  -14.8 °C -0.9 °F /  -18.3 °C 30.80in /  1042.9hPa Calm     75% 0.00in /  0mm 0.0 W/m2 CLR
04:27 5.3 °F /  -14.8 °C -0.6 °F /  -18.1 °C 30.80in /  1042.9hPa Calm     76% 0.00in /  0mm 0.0 W/m2 CLR
04:32 5.2 °F /  -14.9 °C -0.7 °F /  -18.2 °C 30.80in /  1042.9hPa Calm     76% 0.00in /  0mm 0.0 W/m2 CLR
04:33 5.2 °F /  -14.9 °C -0.7 °F /  -18.2 °C 30.80in /  1042.9hPa Calm     76% 0.00in /  0mm 0.0 W/m2 CLR
04:38 5.0 °F /  -15 °C -0.9 °F /  -18.3 °C 30.80in /  1042.9hPa Calm     76% 0.00in /  0mm 0.0 W/m2 CLR
04:40 5.0 °F /  -15 °C -0.6 °F /  -18.1 °C 30.80in /  1042.9hPa Calm     77% 0.00in /  0mm 0.0 W/m2 CLR
04:45 5.0 °F /  -15 °C -0.6 °F /  -18.1 °C 30.80in /  1042.9hPa Calm     77% 0.00in /  0mm 0.0 W/m2 CLR
04:50 4.9 °F /  -15.1 °C -0.5 °F /  -18.1 °C 30.80in /  1042.9hPa Calm     78% 0.00in /  0mm 0.0 W/m2 CLR
04:51 4.9 °F /  -15.1 °C -0.5 °F /  -18.1 °C 30.80in /  1042.9hPa Calm     78% 0.00in /  0mm 0.0 W/m2 CLR
04:53 4.9 °F /  -15.1 °C -0.5 °F /  -18.1 °C 30.80in /  1042.9hPa Calm     78% 0.00in /  0mm 0.0 W/m2 CLR
04:57 4.8 °F /  -15.1 °C -0.6 °F /  -18.1 °C 30.80in /  1042.9hPa Calm     78% 0.00in /  0mm 0.0 W/m2 CLR
05:02 4.8 °F /  -15.1 °C -0.3 °F /  -17.9 °C 30.80in /  1042.9hPa Calm     79% 0.00in /  0mm 0.0 W/m2 CLR
05:05 4.7 °F /  -15.2 °C -0.4 °F /  -18 °C 30.80in /  1042.9hPa Calm   0.1mph /  0.2km/h 79% 0.00in /  0mm 0.0 W/m2 CLR
05:07 4.6 °F /  -15.2 °C -0.5 °F /  -18.1 °C 30.80in /  1042.9hPa Calm     79% 0.00in /  0mm 0.0 W/m2 CLR
05:12 4.5 °F /  -15.3 °C -0.6 °F /  -18.1 °C 30.80in /  1042.9hPa NE 1.2mph /  1.9km/h 1.2mph /  1.9km/h 79% 0.00in /  0mm 0.0 W/m2 CLR
05:14 4.5 °F /  -15.3 °C -0.6 °F /  -18.1 °C 30.80in /  1042.9hPa NE 1.2mph /  1.9km/h 1.2mph /  1.9km/h 79% 0.00in /  0mm 0.0 W/m2 CLR
05:19 4.4 °F /  -15.3 °C -0.4 °F /  -18 °C 30.80in /  1042.9hPa NE 2.0mph /  3.2km/h 2.0mph /  3.2km/h 80% 0.00in /  0mm 0.0 W/m2 CLR
05:24 4.3 °F /  -15.4 °C -0.5 °F /  -18.1 °C 30.80in /  1042.9hPa NE 2.3mph /  3.7km/h 2.3mph /  3.7km/h 80% 0.00in /  0mm 0.0 W/m2 CLR
05:26 4.3 °F /  -15.4 °C -0.5 °F /  -18.1 °C 30.80in /  1042.9hPa NE 2.3mph /  3.7km/h 2.3mph /  3.7km/h 80% 0.00in /  0mm 0.0 W/m2 CLR
05:31 4.3 °F /  -15.4 °C -0.5 °F /  -18.1 °C 30.79in /  1042.5hPa NE 2.3mph /  3.7km/h 2.3mph /  3.7km/h 80% 0.00in /  0mm 0.0 W/m2 CLR
05:32 4.3 °F /  -15.4 °C -0.5 °F /  -18.1 °C 30.79in /  1042.5hPa NE 2.3mph /  3.7km/h 2.3mph /  3.7km/h 80% 0.00in /  0mm 0.0 W/m2 CLR
05:37 4.4 °F /  -15.3 °C -0.7 °F /  -18.2 °C 30.79in /  1042.5hPa NE 3.5mph /  5.6km/h 3.5mph /  5.6km/h 79% 0.00in /  0mm 0.0 W/m2 CLR
05:42 4.4 °F /  -15.3 °C -0.7 °F /  -18.2 °C 30.79in /  1042.5hPa NE 3.5mph /  5.6km/h 3.5mph /  5.6km/h 79% 0.00in /  0mm 0.0 W/m2 CLR
05:46 4.4 °F /  -15.3 °C -0.7 °F /  -18.2 °C 30.79in /  1042.5hPa NE 3.5mph /  5.6km/h 3.5mph /  5.6km/h 79% 0.00in /  0mm 0.0 W/m2 CLR
05:49 4.4 °F /  -15.3 °C -0.7 °F /  -18.2 °C 30.79in /  1042.5hPa NE 4.6mph /  7.4km/h 4.6mph /  7.4km/h 79% 0.00in /  0mm 0.0 W/m2 CLR
05:53 4.4 °F /  -15.3 °C -0.7 °F /  -18.2 °C 30.79in /  1042.5hPa NNE 4.6mph /  7.4km/h 4.6mph /  7.4km/h 79% 0.00in /  0mm 0.0 W/m2 CLR
05:55 4.4 °F /  -15.3 °C -0.7 °F /  -18.2 °C 30.79in /  1042.5hPa NE 3.5mph /  5.6km/h 3.5mph /  5.6km/h 79% 0.00in /  0mm 0.0 W/m2 CLR
05:59 4.4 °F /  -15.3 °C -0.7 °F /  -18.2 °C 30.79in /  1042.5hPa NE 3.5mph /  5.6km/h 3.5mph /  5.6km/h 79% 0.00in /  0mm 0.0 W/m2 CLR
06:00 4.4 °F /  -15.3 °C -0.7 °F /  -18.2 °C 30.79in /  1042.5hPa NE 3.5mph /  5.6km/h 3.5mph /  5.6km/h 79% 0.00in /  0mm 0.0 W/m2 CLR
06:05 4.3 °F /  -15.4 °C -0.8 °F /  -18.2 °C 30.79in /  1042.5hPa NE 3.5mph /  5.6km/h 3.5mph /  5.6km/h 79% 0.00in /  0mm 0.0 W/m2 CLR
06:06 4.4 °F /  -15.3 °C -0.7 °F /  -18.2 °C 30.79in /  1042.5hPa NE 5.0mph /  8km/h 5.0mph /  8km/h 79% 0.00in /  0mm 0.0 W/m2 CLR
06:08 4.4 °F /  -15.3 °C -0.7 °F /  -18.2 °C 30.79in /  1042.5hPa NE 5.0mph /  8km/h 5.0mph /  8km/h 79% 0.00in /  0mm 0.0 W/m2 CLR
06:11 4.4 °F /  -15.3 °C -0.9 °F /  -18.3 °C 30.79in /  1042.5hPa NE 3.5mph /  5.6km/h 3.5mph /  5.6km/h 78% 0.00in /  0mm 0.0 W/m2 CLR
06:16 4.4 °F /  -15.3 °C -0.9 °F /  -18.3 °C 30.79in /  1042.5hPa NNE 5.0mph /  8km/h 5.0mph /  8km/h 78% 0.00in /  0mm 0.0 W/m2 CLR
06:18 4.4 °F /  -15.3 °C -0.9 °F /  -18.3 °C 30.79in /  1042.5hPa NNE 5.0mph /  8km/h 5.0mph /  8km/h 78% 0.00in /  0mm 0.0 W/m2 CLR
06:23 4.4 °F /  -15.3 °C -0.9 °F /  -18.3 °C 30.80in /  1042.9hPa NE 4.6mph /  7.4km/h 4.6mph /  7.4km/h 78% 0.00in /  0mm 0.0 W/m2 CLR
06:24 4.4 °F /  -15.3 °C -0.9 °F /  -18.3 °C 30.80in /  1042.9hPa NE 3.5mph /  5.6km/h 3.5mph /  5.6km/h 78% 0.00in /  0mm 0.0 W/m2 CLR
06:26 4.4 °F /  -15.3 °C -0.9 °F /  -18.3 °C 30.80in /  1042.9hPa NE 2.3mph /  3.7km/h 2.3mph /  3.7km/h 78% 0.00in /  0mm 0.0 W/m2 CLR
06:30 4.4 °F /  -15.3 °C -0.9 °F /  -18.3 °C 30.80in /  1042.9hPa NE 3.5mph /  5.6km/h 3.5mph /  5.6km/h 78% 0.00in /  0mm 0.0 W/m2 CLR
06:34 4.4 °F /  -15.3 °C -0.9 °F /  -18.3 °C 30.80in /  1042.9hPa NE 3.5mph /  5.6km/h 3.5mph /  5.6km/h 78% 0.00in /  0mm 0.0 W/m2 CLR
06:35 4.4 °F /  -15.3 °C -0.9 °F /  -18.3 °C 30.80in /  1042.9hPa NE 2.3mph /  3.7km/h 2.3mph /  3.7km/h 78% 0.00in /  0mm 0.0 W/m2 CLR
06:40 4.4 °F /  -15.3 °C -0.9 °F /  -18.3 °C 30.81in /  1043.2hPa NNE 2.3mph /  3.7km/h 2.3mph /  3.7km/h 78% 0.00in /  0mm 0.0 W/m2 CLR
06:41 4.4 °F /  -15.3 °C -0.9 °F /  -18.3 °C 30.81in /  1043.2hPa NNE 3.5mph /  5.6km/h 3.5mph /  5.6km/h 78% 0.00in /  0mm 0.0 W/m2 CLR
06:42 4.4 °F /  -15.3 °C -0.9 °F /  -18.3 °C 30.81in /  1043.2hPa NNE 3.5mph /  5.6km/h 3.5mph /  5.6km/h 78% 0.00in /  0mm 0.0 W/m2 CLR
06:47 4.4 °F /  -15.3 °C -0.9 °F /  -18.3 °C 30.81in /  1043.2hPa NNE 2.3mph /  3.7km/h 2.3mph /  3.7km/h 78% 0.00in /  0mm 0.0 W/m2 CLR
06:49 4.4 °F /  -15.3 °C -0.9 °F /  -18.3 °C 30.81in /  1043.2hPa NNE 3.5mph /  5.6km/h 3.5mph /  5.6km/h 78% 0.00in /  0mm 0.0 W/m2 CLR
06:54 4.5 °F /  -15.3 °C -0.8 °F /  -18.2 °C 30.81in /  1043.2hPa NNE 2.3mph /  3.7km/h 2.3mph /  3.7km/h 78% 0.00in /  0mm 0.0 W/m2 CLR
06:55 4.5 °F /  -15.3 °C -0.8 °F /  -18.2 °C 30.81in /  1043.2hPa NNE 2.3mph /  3.7km/h 2.3mph /  3.7km/h 78% 0.00in /  0mm 0.0 W/m2 CLR
07:02 4.5 °F /  -15.3 °C -0.8 °F /  -18.2 °C 30.81in /  1043.2hPa NNE 2.3mph /  3.7km/h 2.3mph /  3.7km/h 78% 0.00in /  0mm 0.0 W/m2 CLR
07:07 4.5 °F /  -15.3 °C -0.8 °F /  -18.2 °C 30.81in /  1043.2hPa NNE 2.3mph /  3.7km/h   78% 0.00in /  0mm 5.0 W/m2 CLR
07:08 4.5 °F /  -15.3 °C -0.8 °F /  -18.2 °C 30.81in /  1043.2hPa Calm     78% 0.00in /  0mm 7.0 W/m2 CLR
07:13 4.4 °F /  -15.3 °C -0.9 °F /  -18.3 °C 30.81in /  1043.2hPa Calm     78% 0.00in /  0mm 9.0 W/m2 CLR
07:17 4.4 °F /  -15.3 °C -0.7 °F /  -18.2 °C 30.81in /  1043.2hPa Calm     79% 0.00in /  0mm 11.0 W/m2 CLR
07:19 4.4 °F /  -15.3 °C -0.7 °F /  -18.2 °C 30.82in /  1043.6hPa NNE 1.2mph /  1.9km/h 1.2mph /  1.9km/h 79% 0.00in /  0mm 11.0 W/m2 CLR
07:24 4.4 °F /  -15.3 °C -0.7 °F /  -18.2 °C 30.81in /  1043.2hPa Calm     79% 0.00in /  0mm 14.0 W/m2 CLR
07:29 4.4 °F /  -15.3 °C -0.7 °F /  -18.2 °C 30.81in /  1043.2hPa NNE 1.2mph /  1.9km/h 1.2mph /  1.9km/h 79% 0.00in /  0mm 18.0 W/m2 CLR
07:37 4.4 °F /  -15.3 °C -0.7 °F /  -18.2 °C 30.82in /  1043.6hPa NNE 1.2mph /  1.9km/h 1.2mph /  1.9km/h 79% 0.00in /  0mm 19.0 W/m2 CLR
07:40 4.5 °F /  -15.3 °C -0.3 °F /  -17.9 °C 30.82in /  1043.6hPa NNE 2.3mph /  3.7km/h 2.3mph /  3.7km/h 80% 0.00in /  0mm 21.0 W/m2 CLR
07:44 4.6 °F /  -15.2 °C -0.5 °F /  -18.1 °C 30.82in /  1043.6hPa NNE 2.3mph /  3.7km/h 2.3mph /  3.7km/h 79% 0.00in /  0mm 25.0 W/m2 CLR
07:46 4.6 °F /  -15.2 °C -0.5 °F /  -18.1 °C 30.82in /  1043.6hPa NNE 2.3mph /  3.7km/h 2.3mph /  3.7km/h 79% 0.00in /  0mm 25.0 W/m2 CLR
07:51 4.6 °F /  -15.2 °C -0.5 °F /  -18.1 °C 30.82in /  1043.6hPa NNE 1.2mph /  1.9km/h 1.2mph /  1.9km/h 79% 0.00in /  0mm 30.0 W/m2 CLR
07:52 4.6 °F /  -15.2 °C -0.5 °F /  -18.1 °C 30.82in /  1043.6hPa NNE 1.2mph /  1.9km/h 1.2mph /  1.9km/h 79% 0.00in /  0mm 28.0 W/m2 CLR
07:55 4.6 °F /  -15.2 °C -0.5 °F /  -18.1 °C 30.82in /  1043.6hPa NNE 2.0mph /  3.2km/h 2.0mph /  3.2km/h 79% 0.00in /  0mm 30.0 W/m2 CLR
07:57 4.7 °F /  -15.2 °C -0.4 °F /  -18 °C 30.82in /  1043.6hPa NNE 1.2mph /  1.9km/h   79% 0.00in /  0mm 37.0 W/m2 CLR
08:03 5.0 °F /  -15 °C -0.1 °F /  -17.8 °C 30.82in /  1043.6hPa NNE 1.0mph /  1.6km/h 1.0mph /  1.6km/h 79% 0.00in /  0mm 39.0 W/m2 CLR
08:07 5.2 °F /  -14.9 °C 0.1 °F /  -17.7 °C 30.82in /  1043.6hPa NNE 2.3mph /  3.7km/h 2.3mph /  3.7km/h 79% 0.00in /  0mm 37.0 W/m2 CLR
08:12 5.8 °F /  -14.6 °C 0.4 °F /  -17.6 °C 30.81in /  1043.2hPa ENE 3.5mph /  5.6km/h 3.5mph /  5.6km/h 78% 0.00in /  0mm 54.0 W/m2 CLR
08:13 6.0 °F /  -14.4 °C 0.3 °F /  -17.6 °C 30.81in /  1043.2hPa ENE 4.6mph /  7.4km/h 4.6mph /  7.4km/h 77% 0.00in /  0mm 60.0 W/m2 CLR
08:18 6.5 °F /  -14.2 °C 0.5 °F /  -17.5 °C 30.82in /  1043.6hPa ENE 3.5mph /  5.6km/h 3.5mph /  5.6km/h 76% 0.00in /  0mm 53.0 W/m2 CLR
08:23 6.8 °F /  -14 °C 0.6 °F /  -17.4 °C 30.81in /  1043.2hPa NE 6.9mph /  11.1km/h 6.9mph /  11.1km/h 75% 0.00in /  0mm 60.0 W/m2 CLR
08:24 6.8 °F /  -14 °C 0.3 °F /  -17.6 °C 30.81in /  1043.2hPa ENE 6.9mph /  11.1km/h 6.9mph /  11.1km/h 74% 0.00in /  0mm 56.0 W/m2 CLR
08:25 6.8 °F /  -14 °C 0.3 °F /  -17.6 °C 30.81in /  1043.2hPa NE 6.9mph /  11.1km/h 6.9mph /  11.1km/h 74% 0.00in /  0mm 53.0 W/m2 CLR
08:29 6.9 °F /  -13.9 °C 0.4 °F /  -17.6 °C 30.81in /  1043.2hPa ENE 5.8mph /  9.3km/h 5.8mph /  9.3km/h 74% 0.00in /  0mm 88.0 W/m2 CLR
08:34 7.0 °F /  -13.9 °C 0.5 °F /  -17.5 °C 30.81in /  1043.2hPa ENE 4.6mph /  7.4km/h 4.6mph /  7.4km/h 74% 0.00in /  0mm 105.0 W/m2 CLR
08:36 7.1 °F /  -13.8 °C 0.6 °F /  -17.4 °C 30.81in /  1043.2hPa ENE 3.5mph /  5.6km/h 3.5mph /  5.6km/h 74% 0.00in /  0mm 111.0 W/m2 CLR
08:41 7.4 °F /  -13.7 °C 0.6 °F /  -17.4 °C 30.81in /  1043.2hPa ENE 5.8mph /  9.3km/h 5.8mph /  9.3km/h 73% 0.00in /  0mm 58.0 W/m2 CLR
08:42 7.5 °F /  -13.6 °C 0.7 °F /  -17.4 °C 30.81in /  1043.2hPa NE 4.6mph /  7.4km/h 4.6mph /  7.4km/h 73% 0.00in /  0mm 76.0 W/m2 CLR
08:43 7.4 °F /  -13.7 °C 0.6 °F /  -17.4 °C 30.81in /  1043.2hPa ENE 5.0mph /  8km/h 5.0mph /  8km/h 73% 0.00in /  0mm 81.0 W/m2 CLR
08:48 7.5 °F /  -13.6 °C 0.7 °F /  -17.4 °C 30.81in /  1043.2hPa NE 4.6mph /  7.4km/h 4.6mph /  7.4km/h 73% 0.00in /  0mm 153.0 W/m2 CLR
08:49 7.6 °F /  -13.6 °C 0.7 °F /  -17.4 °C 30.81in /  1043.2hPa NE 3.5mph /  5.6km/h 3.5mph /  5.6km/h 73% 0.00in /  0mm 79.0 W/m2 CLR
08:54 8.0 °F /  -13.3 °C 1.1 °F /  -17.2 °C 30.81in /  1043.2hPa NE 5.0mph /  8km/h 5.0mph /  8km/h 73% 0.00in /  0mm 141.0 W/m2 CLR
09:00 8.2 °F /  -13.2 °C 0.7 °F /  -17.4 °C 30.81in /  1043.2hPa NE 4.0mph /  6.4km/h 4.0mph /  6.4km/h 71% 0.00in /  0mm 46.0 W/m2 CLR
09:05 8.3 °F /  -13.2 °C 0.8 °F /  -17.3 °C 30.81in /  1043.2hPa ENE 8.1mph /  13km/h 8.1mph /  13km/h 71% 0.00in /  0mm 142.0 W/m2 CLR
09:06 8.4 °F /  -13.1 °C 0.9 °F /  -17.3 °C 30.81in /  1043.2hPa ENE 4.6mph /  7.4km/h 4.6mph /  7.4km/h 71% 0.00in /  0mm 121.0 W/m2 CLR
09:07 8.4 °F /  -13.1 °C 0.9 °F /  -17.3 °C 30.81in /  1043.2hPa ENE 3.5mph /  5.6km/h 3.5mph /  5.6km/h 71% 0.00in /  0mm 111.0 W/m2 CLR
09:12 8.7 °F /  -12.9 °C 1.2 °F /  -17.1 °C 30.81in /  1043.2hPa NNE 6.9mph /  11.1km/h 6.9mph /  11.1km/h 71% 0.00in /  0mm 304.0 W/m2 CLR
09:17 9.1 °F /  -12.7 °C 1.3 °F /  -17.1 °C 30.81in /  1043.2hPa NE 4.6mph /  7.4km/h 4.6mph /  7.4km/h 70% 0.00in /  0mm 172.0 W/m2 CLR
09:22 9.3 °F /  -12.6 °C 1.5 °F /  -16.9 °C 30.81in /  1043.2hPa NNE 5.8mph /  9.3km/h 5.8mph /  9.3km/h 70% 0.00in /  0mm 56.0 W/m2 CLR
09:23 9.4 °F /  -12.6 °C 1.6 °F /  -16.9 °C 30.81in /  1043.2hPa ENE 4.0mph /  6.4km/h 4.0mph /  6.4km/h 70% 0.00in /  0mm 109.0 W/m2 CLR
09:28 9.5 °F /  -12.5 °C 1.4 °F /  -17 °C 30.81in /  1043.2hPa NE 3.5mph /  5.6km/h 3.5mph /  5.6km/h 69% 0.00in /  0mm 141.0 W/m2 CLR
09:33 9.8 °F /  -12.3 °C 1.7 °F /  -16.8 °C 30.81in /  1043.2hPa East 3.5mph /  5.6km/h 3.5mph /  5.6km/h 69% 0.00in /  0mm 265.0 W/m2 CLR
09:35 10.0 °F /  -12.2 °C 2.2 °F /  -16.6 °C 30.81in /  1043.2hPa East 3.5mph /  5.6km/h 3.5mph /  5.6km/h 70% 0.00in /  0mm 202.0 W/m2 CLR
09:39 10.3 °F /  -12.1 °C 1.8 °F /  -16.8 °C 30.81in /  1043.2hPa ESE 3.5mph /  5.6km/h 3.5mph /  5.6km/h 68% 0.00in /  0mm 111.0 W/m2 CLR
09:42 10.5 °F /  -11.9 °C 2.0 °F /  -16.7 °C 30.81in /  1043.2hPa East 3.5mph /  5.6km/h 3.5mph /  5.6km/h 68% 0.00in /  0mm 181.0 W/m2 CLR
09:45 10.8 °F /  -11.8 °C 2.3 °F /  -16.5 °C 30.81in /  1043.2hPa East 3.5mph /  5.6km/h 3.5mph /  5.6km/h 68% 0.00in /  0mm 241.0 W/m2 CLR
09:48 10.7 °F /  -11.8 °C 1.6 °F /  -16.9 °C 30.81in /  1043.2hPa East 5.8mph /  9.3km/h 5.8mph /  9.3km/h 66% 0.00in /  0mm 251.0 W/m2 CLR
09:51 10.5 °F /  -11.9 °C 1.4 °F /  -17 °C 30.81in /  1043.2hPa East 3.5mph /  5.6km/h 3.5mph /  5.6km/h 66% 0.00in /  0mm 234.0 W/m2 CLR
09:53 10.5 °F /  -11.9 °C 1.4 °F /  -17 °C 30.81in /  1043.2hPa East 4.6mph /  7.4km/h 4.6mph /  7.4km/h 66% 0.00in /  0mm 139.0 W/m2 CLR
09:59 10.8 °F /  -11.8 °C 1.7 °F /  -16.8 °C 30.81in /  1043.2hPa East 2.3mph /  3.7km/h 2.3mph /  3.7km/h 66% 0.00in /  0mm 255.0 W/m2 CLR
10:00 10.9 °F /  -11.7 °C 1.8 °F /  -16.8 °C 30.81in /  1043.2hPa East 3.5mph /  5.6km/h 3.5mph /  5.6km/h 66% 0.00in /  0mm 255.0 W/m2 CLR
10:05 11.3 °F /  -11.5 °C 1.8 °F /  -16.8 °C 30.81in /  1043.2hPa East 2.3mph /  3.7km/h 2.3mph /  3.7km/h 65% 0.00in /  0mm 308.0 W/m2 CLR
10:08 11.5 °F /  -11.4 °C 2.0 °F /  -16.7 °C 30.81in /  1043.2hPa East 3.5mph /  5.6km/h 3.5mph /  5.6km/h 65% 0.00in /  0mm 308.0 W/m2 CLR
10:11 11.6 °F /  -11.3 °C 1.8 °F /  -16.8 °C 30.80in /  1042.9hPa East 3.5mph /  5.6km/h 3.5mph /  5.6km/h 64% 0.00in /  0mm 360.0 W/m2 CLR
10:13 11.7 °F /  -11.3 °C 1.9 °F /  -16.7 °C 30.80in /  1042.9hPa East 2.0mph /  3.2km/h 2.0mph /  3.2km/h 64% 0.00in /  0mm 294.0 W/m2 CLR
10:18 12.1 °F /  -11.1 °C 2.2 °F /  -16.6 °C 30.80in /  1042.9hPa East 3.5mph /  5.6km/h 3.5mph /  5.6km/h 64% 0.00in /  0mm 367.0 W/m2 CLR
10:19 12.2 °F /  -11 °C 2.3 °F /  -16.5 °C 30.80in /  1042.9hPa East 3.5mph /  5.6km/h 3.5mph /  5.6km/h 64% 0.00in /  0mm 367.0 W/m2 CLR
10:24 12.1 °F /  -11.1 °C 1.6 °F /  -16.9 °C 30.79in /  1042.5hPa East 2.3mph /  3.7km/h 2.3mph /  3.7km/h 62% 0.00in /  0mm 239.0 W/m2 CLR
10:26 12.2 °F /  -11 °C 2.0 °F /  -16.7 °C 30.79in /  1042.5hPa East 3.5mph /  5.6km/h 3.5mph /  5.6km/h 63% 0.00in /  0mm 330.0 W/m2 CLR
10:27 12.3 °F /  -10.9 °C 2.1 °F /  -16.6 °C 30.79in /  1042.5hPa East 3.5mph /  5.6km/h 3.5mph /  5.6km/h 63% 0.00in /  0mm 410.0 W/m2 CLR
10:32 13.1 °F /  -10.5 °C 3.2 °F /  -16 °C 30.79in /  1042.5hPa NE 3.5mph /  5.6km/h 3.5mph /  5.6km/h 64% 0.00in /  0mm 399.0 W/m2 CLR
10:33 13.2 °F /  -10.4 °C 2.9 °F /  -16.2 °C 30.79in /  1042.5hPa NE 3.5mph /  5.6km/h 3.5mph /  5.6km/h 63% 0.00in /  0mm 360.0 W/m2 CLR
10:34 13.4 °F /  -10.3 °C 3.1 °F /  -16.1 °C 30.79in /  1042.5hPa NNE 3.5mph /  5.6km/h 3.5mph /  5.6km/h 63% 0.00in /  0mm 272.0 W/m2 CLR
10:39 14.0 °F /  -10 °C 3.4 °F /  -15.9 °C 30.79in /  1042.5hPa ENE 3.0mph /  4.8km/h 3.0mph /  4.8km/h 62% 0.00in /  0mm 345.0 W/m2 CLR
10:43 14.1 °F /  -9.9 °C 3.1 °F /  -16.1 °C 30.79in /  1042.5hPa East 2.3mph /  3.7km/h 2.3mph /  3.7km/h 61% 0.00in /  0mm 255.0 W/m2 CLR
10:46 14.2 °F /  -9.9 °C 3.2 °F /  -16 °C 30.79in /  1042.5hPa East 3.5mph /  5.6km/h 3.5mph /  5.6km/h 61% 0.00in /  0mm 269.0 W/m2 CLR
10:51 14.2 °F /  -9.9 °C 3.2 °F /  -16 °C 30.78in /  1042.2hPa WSW 3.5mph /  5.6km/h 3.5mph /  5.6km/h 61% 0.00in /  0mm 320.0 W/m2 CLR
10:52 14.1 °F /  -9.9 °C 3.1 °F /  -16.1 °C 30.78in /  1042.2hPa WSW 3.5mph /  5.6km/h 3.5mph /  5.6km/h 61% 0.00in /  0mm 313.0 W/m2 CLR
10:53 14.1 °F /  -9.9 °C 3.1 °F /  -16.1 °C 30.78in /  1042.2hPa WSW 3.5mph /  5.6km/h 3.5mph /  5.6km/h 61% 0.00in /  0mm 272.0 W/m2 CLR
10:58 14.6 °F /  -9.7 °C 3.2 °F /  -16 °C 30.78in /  1042.2hPa North 3.5mph /  5.6km/h 3.5mph /  5.6km/h 60% 0.00in /  0mm 350.0 W/m2 CLR
11:00 14.6 °F /  -9.7 °C 2.9 °F /  -16.2 °C 30.78in /  1042.2hPa North 3.5mph /  5.6km/h 3.5mph /  5.6km/h 59% 0.00in /  0mm 385.0 W/m2 CLR
11:05 14.6 °F /  -9.7 °C 2.9 °F /  -16.2 °C 30.78in /  1042.2hPa West 3.0mph /  4.8km/h 3.0mph /  4.8km/h 59% 0.00in /  0mm 487.0 W/m2 CLR
11:07 14.7 °F /  -9.6 °C 3.3 °F /  -15.9 °C 30.78in /  1042.2hPa West 5.8mph /  9.3km/h 5.8mph /  9.3km/h 60% 0.00in /  0mm 476.0 W/m2 CLR
11:12 14.7 °F /  -9.6 °C 2.9 °F /  -16.2 °C 30.77in /  1041.9hPa NNE 5.0mph /  8km/h 5.0mph /  8km/h 59% 0.00in /  0mm 436.0 W/m2 CLR
11:13 14.9 °F /  -9.5 °C 3.1 °F /  -16.1 °C 30.77in /  1041.9hPa NNE 5.8mph /  9.3km/h 5.8mph /  9.3km/h 59% 0.00in /  0mm 480.0 W/m2 CLR
11:19 15.5 °F /  -9.2 °C 3.0 °F /  -16.1 °C 30.76in /  1041.5hPa NNE 3.5mph /  5.6km/h 3.5mph /  5.6km/h 57% 0.00in /  0mm 469.0 W/m2 CLR
11:22 15.9 °F /  -8.9 °C 3.3 °F /  -15.9 °C 30.77in /  1041.9hPa NNE 3.5mph /  5.6km/h 3.5mph /  5.6km/h 57% 0.00in /  0mm 522.0 W/m2 CLR
11:24 16.4 °F /  -8.7 °C 3.8 °F /  -15.7 °C 30.76in /  1041.5hPa NNE 2.3mph /  3.7km/h 2.3mph /  3.7km/h 57% 0.00in /  0mm 520.0 W/m2 CLR
11:28 16.7 °F /  -8.5 °C 3.3 °F /  -15.9 °C 30.76in /  1041.5hPa NNE 3.5mph /  5.6km/h 3.5mph /  5.6km/h 55% 0.00in /  0mm 520.0 W/m2 CLR
11:33 16.7 °F /  -8.5 °C 3.7 °F /  -15.7 °C 30.75in /  1041.2hPa East 3.5mph /  5.6km/h 3.5mph /  5.6km/h 56% 0.00in /  0mm 473.0 W/m2 CLR
11:35 16.7 °F /  -8.5 °C 3.3 °F /  -15.9 °C 30.75in /  1041.2hPa ESE 3.5mph /  5.6km/h 3.5mph /  5.6km/h 55% 0.00in /  0mm 529.0 W/m2 CLR
11:37 16.7 °F /  -8.5 °C 3.3 °F /  -15.9 °C 30.75in /  1041.2hPa ESE 2.3mph /  3.7km/h 2.3mph /  3.7km/h 55% 0.00in /  0mm 439.0 W/m2 CLR
11:40 16.8 °F /  -8.4 °C 3.4 °F /  -15.9 °C 30.75in /  1041.2hPa ESE 1.2mph /  1.9km/h 1.2mph /  1.9km/h 55% 0.00in /  0mm 483.0 W/m2 CLR
11:45 16.7 °F /  -8.5 °C 2.9 °F /  -16.2 °C 30.74in /  1040.9hPa West 3.5mph /  5.6km/h 3.5mph /  5.6km/h 54% 0.00in /  0mm 476.0 W/m2 CLR
11:46 16.7 °F /  -8.5 °C 3.3 °F /  -15.9 °C 30.74in /  1040.9hPa West 3.5mph /  5.6km/h 3.5mph /  5.6km/h 55% 0.00in /  0mm 457.0 W/m2 CLR
11:48 16.8 °F /  -8.4 °C 3.4 °F /  -15.9 °C 30.74in /  1040.9hPa West 3.5mph /  5.6km/h 3.5mph /  5.6km/h 55% 0.00in /  0mm 452.0 W/m2 CLR
11:52 17.4 °F /  -8.1 °C 3.6 °F /  -15.8 °C 30.74in /  1040.9hPa WNW 3.5mph /  5.6km/h 3.5mph /  5.6km/h 54% 0.00in /  0mm 512.0 W/m2 CLR
11:57 17.4 °F /  -8.1 °C 3.6 °F /  -15.8 °C 30.73in /  1040.5hPa West 3.5mph /  5.6km/h 3.5mph /  5.6km/h 54% 0.00in /  0mm 487.0 W/m2 CLR
11:58 17.4 °F /  -8.1 °C 4.0 °F /  -15.6 °C 30.73in /  1040.5hPa West 3.5mph /  5.6km/h 3.5mph /  5.6km/h 55% 0.00in /  0mm 483.0 W/m2 CLR
12:03 17.4 °F /  -8.1 °C 4.0 °F /  -15.6 °C 30.72in /  1040.2hPa West 1.2mph /  1.9km/h   55% 0.00in /  0mm 490.0 W/m2 CLR
12:04 17.5 °F /  -8.1 °C 3.7 °F /  -15.7 °C 30.72in /  1040.2hPa East 4.0mph /  6.4km/h 4.0mph /  6.4km/h 54% 0.00in /  0mm 513.0 W/m2 CLR
12:06 17.5 °F /  -8.1 °C 3.7 °F /  -15.7 °C 30.72in /  1040.2hPa ENE 6.9mph /  11.1km/h 6.9mph /  11.1km/h 54% 0.00in /  0mm 531.0 W/m2 CLR
12:09 17.4 °F /  -8.1 °C 3.2 °F /  -16 °C 30.72in /  1040.2hPa ENE 4.6mph /  7.4km/h 4.6mph /  7.4km/h 53% 0.00in /  0mm 508.0 W/m2 CLR
12:15 17.9 °F /  -7.8 °C 4.0 °F /  -15.6 °C 30.71in /  1039.8hPa ENE 4.6mph /  7.4km/h 4.6mph /  7.4km/h 54% 0.00in /  0mm 534.0 W/m2 CLR
12:16 18.1 °F /  -7.7 °C 3.8 °F /  -15.7 °C 30.71in /  1039.8hPa ENE 3.5mph /  5.6km/h 3.5mph /  5.6km/h 53% 0.00in /  0mm 531.0 W/m2 CLR
12:21 18.7 °F /  -7.4 °C 4.4 °F /  -15.3 °C 30.71in /  1039.8hPa ENE 2.3mph /  3.7km/h 2.3mph /  3.7km/h 53% 0.00in /  0mm 482.0 W/m2 CLR
12:22 18.8 °F /  -7.3 °C 4.9 °F /  -15.1 °C 30.71in /  1039.8hPa ENE 2.3mph /  3.7km/h 2.3mph /  3.7km/h 54% 0.00in /  0mm 501.0 W/m2 CLR
12:27 19.5 °F /  -6.9 °C 4.7 °F /  -15.2 °C 30.71in /  1039.8hPa ENE 3.5mph /  5.6km/h 3.5mph /  5.6km/h 52% 0.00in /  0mm 362.0 W/m2 CLR
12:29 19.6 °F /  -6.9 °C 3.9 °F /  -15.6 °C 30.71in /  1039.8hPa ENE 3.5mph /  5.6km/h 3.5mph /  5.6km/h 50% 0.00in /  0mm 362.0 W/m2 CLR
12:33 19.7 °F /  -6.8 °C 4.0 °F /  -15.6 °C 30.70in /  1039.5hPa NNW 3.5mph /  5.6km/h 3.5mph /  5.6km/h 50% 0.00in /  0mm 385.0 W/m2 CLR
12:38 20.1 °F /  -6.6 °C 4.8 °F /  -15.1 °C 30.70in /  1039.5hPa NE 2.3mph /  3.7km/h 2.3mph /  3.7km/h 51% 0.00in /  0mm 425.0 W/m2 CLR
12:40 20.4 °F /  -6.4 °C 4.7 °F /  -15.2 °C 30.70in /  1039.5hPa NNE 5.0mph /  8km/h 5.0mph /  8km/h 50% 0.00in /  0mm 432.0 W/m2 CLR
12:44 20.6 °F /  -6.3 °C 4.0 °F /  -15.6 °C 30.69in /  1039.2hPa NE 4.6mph /  7.4km/h 4.6mph /  7.4km/h 48% 0.00in /  0mm 480.0 W/m2 CLR
12:45 20.5 °F /  -6.4 °C 3.9 °F /  -15.6 °C 30.69in /  1039.2hPa ENE 4.6mph /  7.4km/h 4.6mph /  7.4km/h 48% 0.00in /  0mm 545.0 W/m2 CLR
12:50 20.3 °F /  -6.5 °C 4.2 °F /  -15.4 °C 30.69in /  1039.2hPa WNW 6.9mph /  11.1km/h 6.9mph /  11.1km/h 49% 0.00in /  0mm 526.0 W/m2 CLR
12:52 20.5 °F /  -6.4 °C 4.3 °F /  -15.4 °C 30.69in /  1039.2hPa West 3.5mph /  5.6km/h 3.5mph /  5.6km/h 49% 0.00in /  0mm 520.0 W/m2 CLR
12:57 20.5 °F /  -6.4 °C 4.3 °F /  -15.4 °C 30.69in /  1039.2hPa NNE 2.3mph /  3.7km/h 2.3mph /  3.7km/h 49% 0.00in /  0mm 512.0 W/m2 CLR
12:59 20.5 °F /  -6.4 °C 4.3 °F /  -15.4 °C 30.68in /  1038.8hPa NE 3.5mph /  5.6km/h 3.5mph /  5.6km/h 49% 0.00in /  0mm 508.0 W/m2 CLR
13:04 20.5 °F /  -6.4 °C 4.8 °F /  -15.1 °C 30.68in /  1038.8hPa East 3.5mph /  5.6km/h 3.5mph /  5.6km/h 50% 0.00in /  0mm 504.0 W/m2 CLR
13:09 20.8 °F /  -6.2 °C 4.2 °F /  -15.4 °C 30.68in /  1038.8hPa East 3.5mph /  5.6km/h 3.5mph /  5.6km/h 48% 0.00in /  0mm 429.0 W/m2 CLR
13:10 20.7 °F /  -6.3 °C 4.1 °F /  -15.5 °C 30.68in /  1038.8hPa East 3.5mph /  5.6km/h 3.5mph /  5.6km/h 48% 0.00in /  0mm 494.0 W/m2 CLR
13:11 20.7 °F /  -6.3 °C 4.5 °F /  -15.3 °C 30.68in /  1038.8hPa East 3.5mph /  5.6km/h 3.5mph /  5.6km/h 49% 0.00in /  0mm 497.0 W/m2 CLR
13:16 20.7 °F /  -6.3 °C 4.1 °F /  -15.5 °C 30.67in /  1038.5hPa ENE 3.5mph /  5.6km/h 3.5mph /  5.6km/h 48% 0.00in /  0mm 492.0 W/m2 CLR
13:17 20.8 °F /  -6.2 °C 4.2 °F /  -15.4 °C 30.67in /  1038.5hPa ENE 3.5mph /  5.6km/h 3.5mph /  5.6km/h 48% 0.00in /  0mm 489.0 W/m2 CLR
13:19 20.9 °F /  -6.2 °C 4.7 °F /  -15.2 °C 30.67in /  1038.5hPa ENE 3.5mph /  5.6km/h 3.5mph /  5.6km/h 49% 0.00in /  0mm 487.0 W/m2 CLR
13:22 21.2 °F /  -6 °C 4.5 °F /  -15.3 °C 30.66in /  1038.1hPa ENE 3.5mph /  5.6km/h 3.5mph /  5.6km/h 48% 0.00in /  0mm 485.0 W/m2 CLR
13:24 21.4 °F /  -5.9 °C 4.7 °F /  -15.2 °C 30.66in /  1038.1hPa ENE 2.3mph /  3.7km/h 2.3mph /  3.7km/h 48% 0.00in /  0mm 413.0 W/m2 CLR
13:29 22.1 °F /  -5.5 °C 4.4 °F /  -15.3 °C 30.66in /  1038.1hPa ENE 2.3mph /  3.7km/h 2.3mph /  3.7km/h 46% 0.00in /  0mm 383.0 W/m2 CLR
13:32 22.1 °F /  -5.5 °C 4.9 °F /  -15.1 °C 30.66in /  1038.1hPa ENE 5.0mph /  8km/h 5.0mph /  8km/h 47% 0.00in /  0mm 281.0 W/m2 CLR
13:37 21.7 °F /  -5.7 °C 4.5 °F /  -15.3 °C 30.66in /  1038.1hPa ENE 5.8mph /  9.3km/h 5.8mph /  9.3km/h 47% 0.00in /  0mm 183.0 W/m2 CLR
13:41 21.5 °F /  -5.8 °C 4.4 °F /  -15.3 °C 30.65in /  1037.8hPa ENE 3.5mph /  5.6km/h 3.5mph /  5.6km/h 47% 0.00in /  0mm 345.0 W/m2 CLR
13:43 21.5 °F /  -5.8 °C 4.4 °F /  -15.3 °C 30.65in /  1037.8hPa ENE 4.6mph /  7.4km/h 4.6mph /  7.4km/h 47% 0.00in /  0mm 401.0 W/m2 CLR
13:46 21.6 °F /  -5.8 °C 4.4 °F /  -15.3 °C 30.65in /  1037.8hPa NNE 8.1mph /  13km/h 8.1mph /  13km/h 47% 0.00in /  0mm 457.0 W/m2 CLR
13:51 21.7 °F /  -5.7 °C 4.5 °F /  -15.3 °C 30.65in /  1037.8hPa ENE 3.5mph /  5.6km/h 3.5mph /  5.6km/h 47% 0.00in /  0mm 431.0 W/m2 CLR
13:53 21.7 °F /  -5.7 °C 4.5 °F /  -15.3 °C 30.65in /  1037.8hPa ENE 5.0mph /  8km/h 5.0mph /  8km/h 47% 0.00in /  0mm 429.0 W/m2 CLR
13:56 21.8 °F /  -5.7 °C 4.6 °F /  -15.2 °C 30.64in /  1037.5hPa East 3.5mph /  5.6km/h 3.5mph /  5.6km/h 47% 0.00in /  0mm 424.0 W/m2 CLR
13:58 22.0 °F /  -5.6 °C 4.3 °F /  -15.4 °C 30.64in /  1037.5hPa NE 4.6mph /  7.4km/h 4.6mph /  7.4km/h 46% 0.00in /  0mm 417.0 W/m2 CLR
14:03 22.6 °F /  -5.2 °C 5.4 °F /  -14.8 °C 30.64in /  1037.5hPa NE 3.5mph /  5.6km/h 3.5mph /  5.6km/h 47% 0.00in /  0mm 406.0 W/m2 CLR
14:04 22.7 °F /  -5.2 °C 5.5 °F /  -14.7 °C 30.64in /  1037.5hPa NE 3.5mph /  5.6km/h 3.5mph /  5.6km/h 47% 0.00in /  0mm 404.0 W/m2 CLR
14:09 23.1 °F /  -4.9 °C 4.4 °F /  -15.3 °C 30.63in /  1037.1hPa North 3.5mph /  5.6km/h 3.5mph /  5.6km/h 44% 0.00in /  0mm 390.0 W/m2 CLR
14:11 23.1 °F /  -4.9 °C 4.4 °F /  -15.3 °C 30.63in /  1037.1hPa North 3.5mph /  5.6km/h 3.5mph /  5.6km/h 44% 0.00in /  0mm 390.0 W/m2 CLR
14:17 23.4 °F /  -4.8 °C 4.2 °F /  -15.4 °C 30.62in /  1036.8hPa NNE 4.6mph /  7.4km/h 4.6mph /  7.4km/h 43% 0.00in /  0mm 371.0 W/m2 CLR
14:23 23.4 °F /  -4.8 °C 4.2 °F /  -15.4 °C 30.62in /  1036.8hPa NE 2.3mph /  3.7km/h 2.3mph /  3.7km/h 43% 0.00in /  0mm 362.0 W/m2 CLR
14:24 23.5 °F /  -4.7 °C 4.2 °F /  -15.4 °C 30.62in /  1036.8hPa NE 3.5mph /  5.6km/h 3.5mph /  5.6km/h 43% 0.00in /  0mm 362.0 W/m2 CLR
14:28 23.4 °F /  -4.8 °C 4.2 °F /  -15.4 °C 30.62in /  1036.8hPa NE 4.0mph /  6.4km/h 4.0mph /  6.4km/h 43% 0.00in /  0mm 341.0 W/m2 CLR
14:30 23.4 °F /  -4.8 °C 4.2 °F /  -15.4 °C 30.62in /  1036.8hPa NNE 3.5mph /  5.6km/h 3.5mph /  5.6km/h 43% 0.00in /  0mm 336.0 W/m2 CLR
14:35 23.5 °F /  -4.7 °C 4.2 °F /  -15.4 °C 30.62in /  1036.8hPa ENE 3.5mph /  5.6km/h 3.5mph /  5.6km/h 43% 0.00in /  0mm 311.0 W/m2 CLR
14:37 23.6 °F /  -4.7 °C 4.8 °F /  -15.1 °C 30.62in /  1036.8hPa ENE 4.0mph /  6.4km/h 4.0mph /  6.4km/h 44% 0.00in /  0mm 302.0 W/m2 CLR
14:42 23.5 °F /  -4.7 °C 4.2 °F /  -15.4 °C 30.61in /  1036.5hPa ENE 3.5mph /  5.6km/h 3.5mph /  5.6km/h 43% 0.00in /  0mm 272.0 W/m2 CLR
14:47 23.0 °F /  -5 °C 3.8 °F /  -15.7 °C 30.61in /  1036.5hPa ENE 2.3mph /  3.7km/h 2.3mph /  3.7km/h 43% 0.00in /  0mm 100.0 W/m2 CLR
14:50 22.9 °F /  -5.1 °C 3.7 °F /  -15.7 °C 30.61in /  1036.5hPa ENE 2.3mph /  3.7km/h 2.3mph /  3.7km/h 43% 0.00in /  0mm 209.0 W/m2 CLR
14:55 22.9 °F /  -5.1 °C 3.7 °F /  -15.7 °C 30.61in /  1036.5hPa NNE 5.0mph /  8km/h 5.0mph /  8km/h 43% 0.00in /  0mm 49.0 W/m2 CLR
14:56 22.9 °F /  -5.1 °C 3.7 °F /  -15.7 °C 30.61in /  1036.5hPa NE 4.6mph /  7.4km/h 4.6mph /  7.4km/h 43% 0.00in /  0mm 56.0 W/m2 CLR
14:57 22.9 °F /  -5.1 °C 4.2 °F /  -15.4 °C 30.61in /  1036.5hPa NE 3.5mph /  5.6km/h 3.5mph /  5.6km/h 44% 0.00in /  0mm 63.0 W/m2 CLR
15:02 22.7 °F /  -5.2 °C 3.5 °F /  -15.8 °C 30.61in /  1036.5hPa NE 3.0mph /  4.8km/h 3.0mph /  4.8km/h 43% 0.00in /  0mm 53.0 W/m2 CLR
15:03 22.7 °F /  -5.2 °C 3.5 °F /  -15.8 °C 30.61in /  1036.5hPa NE 3.5mph /  5.6km/h 3.5mph /  5.6km/h 43% 0.00in /  0mm 60.0 W/m2 CLR
15:04 22.8 °F /  -5.1 °C 4.1 °F /  -15.5 °C 30.61in /  1036.5hPa NE 2.3mph /  3.7km/h 2.3mph /  3.7km/h 44% 0.00in /  0mm 60.0 W/m2 CLR
15:09 22.7 °F /  -5.2 °C 3.5 °F /  -15.8 °C 30.60in /  1036.1hPa ENE 2.3mph /  3.7km/h 2.3mph /  3.7km/h 43% 0.00in /  0mm 90.0 W/m2 CLR
15:10 22.7 °F /  -5.2 °C 4.0 °F /  -15.6 °C 30.60in /  1036.1hPa ENE 2.3mph /  3.7km/h 2.3mph /  3.7km/h 44% 0.00in /  0mm 105.0 W/m2 CLR
15:13 22.9 °F /  -5.1 °C 4.2 °F /  -15.4 °C 30.60in /  1036.1hPa Calm   0.4mph /  0.6km/h 44% 0.00in /  0mm 81.0 W/m2 CLR
15:17 23.0 °F /  -5 °C 4.3 °F /  -15.4 °C 30.60in /  1036.1hPa NE 3.5mph /  5.6km/h 3.5mph /  5.6km/h 44% 0.00in /  0mm 54.0 W/m2 CLR
15:22 23.1 °F /  -4.9 °C 3.9 °F /  -15.6 °C 30.60in /  1036.1hPa NE 3.0mph /  4.8km/h 3.0mph /  4.8km/h 43% 0.00in /  0mm 97.0 W/m2 CLR
15:23 23.1 °F /  -4.9 °C 3.9 °F /  -15.6 °C 30.60in /  1036.1hPa NE 3.5mph /  5.6km/h 3.5mph /  5.6km/h 43% 0.00in /  0mm 93.0 W/m2 CLR
15:28 23.0 °F /  -5 °C 3.8 °F /  -15.7 °C 30.60in /  1036.1hPa NE 3.5mph /  5.6km/h 3.5mph /  5.6km/h 43% 0.00in /  0mm 60.0 W/m2 CLR
15:29 23.0 °F /  -5 °C 3.8 °F /  -15.7 °C 30.59in /  1035.8hPa NE 2.3mph /  3.7km/h 2.3mph /  3.7km/h 43% 0.00in /  0mm 39.0 W/m2 CLR
15:31 23.0 °F /  -5 °C 3.8 °F /  -15.7 °C 30.59in /  1035.8hPa Calm     43% 0.00in /  0mm 32.0 W/m2 CLR
15:35 23.0 °F /  -5 °C 4.3 °F /  -15.4 °C 30.60in /  1036.1hPa Calm     44% 0.00in /  0mm 28.0 W/m2 CLR
15:40 22.8 °F /  -5.1 °C 4.1 °F /  -15.5 °C 30.59in /  1035.8hPa NE 3.5mph /  5.6km/h 3.5mph /  5.6km/h 44% 0.00in /  0mm 26.0 W/m2 CLR
15:41 22.7 °F /  -5.2 °C 4.0 °F /  -15.6 °C 30.59in /  1035.8hPa NE 3.5mph /  5.6km/h 3.5mph /  5.6km/h 44% 0.00in /  0mm 26.0 W/m2 CLR
15:46 22.4 °F /  -5.3 °C 4.2 °F /  -15.4 °C 30.59in /  1035.8hPa NE 3.5mph /  5.6km/h 3.5mph /  5.6km/h 45% 0.00in /  0mm 26.0 W/m2 CLR
15:49 22.3 °F /  -5.4 °C 4.1 °F /  -15.5 °C 30.59in /  1035.8hPa NE 2.3mph /  3.7km/h 2.3mph /  3.7km/h 45% 0.00in /  0mm 30.0 W/m2 CLR
15:56 22.1 °F /  -5.5 °C 4.0 °F /  -15.6 °C 30.59in /  1035.8hPa NE 1.2mph /  1.9km/h   45% 0.00in /  0mm 25.0 W/m2 CLR
15:57 22.1 °F /  -5.5 °C 4.0 °F /  -15.6 °C 30.59in /  1035.8hPa Calm     45% 0.00in /  0mm 26.0 W/m2 CLR
16:01 22.0 °F /  -5.6 °C 3.9 °F /  -15.6 °C 30.58in /  1035.4hPa NE 3.5mph /  5.6km/h 3.5mph /  5.6km/h 45% 0.00in /  0mm 25.0 W/m2 CLR
16:06 21.9 °F /  -5.6 °C 3.8 °F /  -15.7 °C 30.58in /  1035.4hPa NE 2.3mph /  3.7km/h 2.3mph /  3.7km/h 45% 0.00in /  0mm 25.0 W/m2 CLR
16:08 21.8 °F /  -5.7 °C 3.7 °F /  -15.7 °C 30.58in /  1035.4hPa NE 3.5mph /  5.6km/h 3.5mph /  5.6km/h 45% 0.00in /  0mm 30.0 W/m2 CLR
16:12 21.8 °F /  -5.7 °C 3.7 °F /  -15.7 °C 30.58in /  1035.4hPa NE 2.3mph /  3.7km/h 2.3mph /  3.7km/h 45% 0.00in /  0mm 33.0 W/m2 CLR
16:13 21.8 °F /  -5.7 °C 3.7 °F /  -15.7 °C 30.58in /  1035.4hPa NE 3.5mph /  5.6km/h 3.5mph /  5.6km/h 45% 0.00in /  0mm 30.0 W/m2 CLR
16:18 21.7 °F /  -5.7 °C 3.6 °F /  -15.8 °C 30.57in /  1035.1hPa NE 3.5mph /  5.6km/h 3.5mph /  5.6km/h 45% 0.00in /  0mm 26.0 W/m2 CLR
16:19 21.7 °F /  -5.7 °C 3.6 °F /  -15.8 °C 30.58in /  1035.4hPa NE 2.3mph /  3.7km/h 2.3mph /  3.7km/h 45% 0.00in /  0mm 26.0 W/m2 CLR
16:24 21.6 °F /  -5.8 °C 4.0 °F /  -15.6 °C 30.57in /  1035.1hPa NE 2.3mph /  3.7km/h 2.3mph /  3.7km/h 46% 0.00in /  0mm 25.0 W/m2 CLR
16:28 21.5 °F /  -5.8 °C 3.9 °F /  -15.6 °C 30.57in /  1035.1hPa NE 3.5mph /  5.6km/h 3.5mph /  5.6km/h 46% 0.00in /  0mm 21.0 W/m2 CLR
16:32 21.4 °F /  -5.9 °C 3.8 °F /  -15.7 °C 30.57in /  1035.1hPa NE 3.5mph /  5.6km/h 3.5mph /  5.6km/h 46% 0.00in /  0mm 19.0 W/m2 CLR
16:34 21.4 °F /  -5.9 °C 3.8 °F /  -15.7 °C 30.57in /  1035.1hPa NE 3.5mph /  5.6km/h 3.5mph /  5.6km/h 46% 0.00in /  0mm 18.0 W/m2 CLR
16:39 21.2 °F /  -6 °C 3.6 °F /  -15.8 °C 30.57in /  1035.1hPa ENE 2.3mph /  3.7km/h 2.3mph /  3.7km/h 46% 0.00in /  0mm 14.0 W/m2 CLR
16:40 21.2 °F /  -6 °C 3.6 °F /  -15.8 °C 30.57in /  1035.1hPa ENE 2.3mph /  3.7km/h 2.3mph /  3.7km/h 46% 0.00in /  0mm 14.0 W/m2 CLR
16:42 21.0 °F /  -6.1 °C 3.9 °F /  -15.6 °C 30.57in /  1035.1hPa ENE 2.3mph /  3.7km/h 2.3mph /  3.7km/h 47% 0.00in /  0mm 12.0 W/m2 CLR
16:47 20.9 °F /  -6.2 °C 3.8 °F /  -15.7 °C 30.57in /  1035.1hPa ENE 2.3mph /  3.7km/h 2.3mph /  3.7km/h 47% 0.00in /  0mm 5.0 W/m2 CLR
16:48 20.8 °F /  -6.2 °C 3.2 °F /  -16 °C 30.57in /  1035.1hPa ENE 3.5mph /  5.6km/h 3.5mph /  5.6km/h 46% 0.00in /  0mm 5.0 W/m2 CLR
16:53 20.6 °F /  -6.3 °C 2.6 °F /  -16.3 °C 30.57in /  1035.1hPa ENE 3.5mph /  5.6km/h 3.5mph /  5.6km/h 45% 0.00in /  0mm 0.0 W/m2 CLR
16:54 20.6 °F /  -6.3 °C 2.6 °F /  -16.3 °C 30.57in /  1035.1hPa ENE 2.3mph /  3.7km/h 2.3mph /  3.7km/h 45% 0.00in /  0mm 0.0 W/m2 CLR
16:56 20.5 °F /  -6.4 °C 3.0 °F /  -16.1 °C 30.57in /  1035.1hPa ENE 2.3mph /  3.7km/h 2.3mph /  3.7km/h 46% 0.00in /  0mm 0.0 W/m2 CLR
17:00 20.4 °F /  -6.4 °C 2.4 °F /  -16.4 °C 30.57in /  1035.1hPa ENE 1.2mph /  1.9km/h 1.2mph /  1.9km/h 45% 0.00in /  0mm 0.0 W/m2 CLR
17:03 20.3 °F /  -6.5 °C 2.3 °F /  -16.5 °C 30.57in /  1035.1hPa ENE 2.3mph /  3.7km/h 2.3mph /  3.7km/h 45% 0.00in /  0mm 0.0 W/m2 CLR
17:05 20.2 °F /  -6.6 °C 2.2 °F /  -16.6 °C 30.57in /  1035.1hPa ENE 2.3mph /  3.7km/h 2.3mph /  3.7km/h 45% 0.00in /  0mm 0.0 W/m2 CLR
17:10 20.1 °F /  -6.6 °C 2.1 °F /  -16.6 °C 30.57in /  1035.1hPa ENE 2.3mph /  3.7km/h 2.3mph /  3.7km/h 45% 0.00in /  0mm 0.0 W/m2 CLR
17:11 20.0 °F /  -6.7 °C 2.0 °F /  -16.7 °C 30.57in /  1035.1hPa ENE 2.3mph /  3.7km/h 2.3mph /  3.7km/h 45% 0.00in /  0mm 0.0 W/m2 CLR
17:12 20.0 °F /  -6.7 °C 2.0 °F /  -16.7 °C 30.57in /  1035.1hPa ENE 1.2mph /  1.9km/h 1.2mph /  1.9km/h 45% 0.00in /  0mm 0.0 W/m2 CLR
17:18 19.9 °F /  -6.7 °C 2.4 °F /  -16.4 °C 30.57in /  1035.1hPa Calm     46% 0.00in /  0mm 0.0 W/m2 CLR
17:19 19.9 °F /  -6.7 °C 2.4 °F /  -16.4 °C 30.57in /  1035.1hPa Calm     46% 0.00in /  0mm 0.0 W/m2 CLR
17:23 19.8 °F /  -6.8 °C 2.8 °F /  -16.2 °C 30.57in /  1035.1hPa Calm     47% 0.00in /  0mm 0.0 W/m2 CLR
17:24 19.8 °F /  -6.8 °C 2.8 °F /  -16.2 °C 30.57in /  1035.1hPa Calm     47% 0.00in /  0mm 0.0 W/m2 CLR
17:30 19.6 °F /  -6.9 °C 3.1 °F /  -16.1 °C 30.57in /  1035.1hPa Calm     48% 0.00in /  0mm 0.0 W/m2 CLR
17:31 19.5 °F /  -6.9 °C 2.5 °F /  -16.4 °C 30.57in /  1035.1hPa Calm     47% 0.00in /  0mm 0.0 W/m2 CLR
17:35 19.4 °F /  -7 °C 2.4 °F /  -16.4 °C 30.57in /  1035.1hPa Calm     47% 0.00in /  0mm 0.0 W/m2 CLR
17:39 19.2 °F /  -7.1 °C 3.1 °F /  -16.1 °C 30.57in /  1035.1hPa Calm     49% 0.00in /  0mm 0.0 W/m2 CLR
17:40 19.2 °F /  -7.1 °C 3.1 °F /  -16.1 °C 30.57in /  1035.1hPa Calm     49% 0.00in /  0mm 0.0 W/m2 CLR
17:44 19.1 °F /  -7.2 °C 2.6 °F /  -16.3 °C 30.56in /  1034.8hPa ENE 2.3mph /  3.7km/h 2.3mph /  3.7km/h 48% 0.00in /  0mm 0.0 W/m2 CLR
17:48 19.0 °F /  -7.2 °C 2.5 °F /  -16.4 °C 30.56in /  1034.8hPa ENE 1.2mph /  1.9km/h 1.2mph /  1.9km/h 48% 0.00in /  0mm 0.0 W/m2 CLR
17:53 18.9 °F /  -7.3 °C 2.4 °F /  -16.4 °C 30.56in /  1034.8hPa ENE 2.3mph /  3.7km/h 2.3mph /  3.7km/h 48% 0.00in /  0mm 0.0 W/m2 CLR
17:54 18.9 °F /  -7.3 °C 2.4 °F /  -16.4 °C 30.56in /  1034.8hPa ENE 2.3mph /  3.7km/h 2.3mph /  3.7km/h 48% 0.00in /  0mm 0.0 W/m2 CLR
17:59 18.8 °F /  -7.3 °C 2.8 °F /  -16.2 °C 30.56in /  1034.8hPa ENE 1.0mph /  1.6km/h 1.0mph /  1.6km/h 49% 0.00in /  0mm 0.0 W/m2 CLR
18:03 18.7 °F /  -7.4 °C 2.2 °F /  -16.6 °C 30.55in /  1034.4hPa ENE 1.2mph /  1.9km/h 1.2mph /  1.9km/h 48% 0.00in /  0mm 0.0 W/m2 CLR
18:06 18.6 °F /  -7.4 °C 2.6 °F /  -16.3 °C 30.55in /  1034.4hPa Calm     49% 0.00in /  0mm 0.0 W/m2 CLR
18:09 18.6 °F /  -7.4 °C 2.6 °F /  -16.3 °C 30.55in /  1034.4hPa Calm     49% 0.00in /  0mm 0.0 W/m2 CLR
18:12 18.5 °F /  -7.5 °C 2.5 °F /  -16.4 °C 30.55in /  1034.4hPa Calm     49% 0.00in /  0mm 0.0 W/m2 CLR
18:16 18.4 °F /  -7.6 °C 2.8 °F /  -16.2 °C 30.55in /  1034.4hPa Calm     50% 0.00in /  0mm 0.0 W/m2 CLR
18:19 18.3 °F /  -7.6 °C 3.2 °F /  -16 °C 30.55in /  1034.4hPa Calm     51% 0.00in /  0mm 0.0 W/m2 CLR
18:21 18.3 °F /  -7.6 °C 3.2 °F /  -16 °C 30.55in /  1034.4hPa Calm     51% 0.00in /  0mm 0.0 W/m2 CLR
18:24 18.2 °F /  -7.7 °C 3.1 °F /  -16.1 °C 30.55in /  1034.4hPa Calm     51% 0.00in /  0mm 0.0 W/m2 CLR
18:28 18.1 °F /  -7.7 °C 3.0 °F /  -16.1 °C 30.55in /  1034.4hPa Calm     51% 0.00in /  0mm 0.0 W/m2 CLR
18:33 18.1 °F /  -7.7 °C 3.4 °F /  -15.9 °C 30.55in /  1034.4hPa Calm     52% 0.00in /  0mm 0.0 W/m2 CLR
18:35 18.0 °F /  -7.8 °C 3.3 °F /  -15.9 °C 30.55in /  1034.4hPa Calm     52% 0.00in /  0mm 0.0 W/m2 CLR
18:36 18.0 °F /  -7.8 °C 3.3 °F /  -15.9 °C 30.55in /  1034.4hPa Calm     52% 0.00in /  0mm 0.0 W/m2 CLR
18:41 17.9 °F /  -7.8 °C 4.8 °F /  -15.1 °C 30.55in /  1034.4hPa ENE 2.3mph /  3.7km/h 2.3mph /  3.7km/h 56% 0.00in /  0mm 0.0 W/m2 CLR
18:42 17.8 °F /  -7.9 °C 4.7 °F /  -15.2 °C 30.55in /  1034.4hPa ENE 2.3mph /  3.7km/h 2.3mph /  3.7km/h 56% 0.00in /  0mm 0.0 W/m2 CLR
18:46 17.5 °F /  -8.1 °C 4.8 °F /  -15.1 °C 30.54in /  1034.1hPa ENE 1.2mph /  1.9km/h   57% 0.00in /  0mm 0.0 W/m2 CLR
18:49 17.4 °F /  -8.1 °C 5.1 °F /  -14.9 °C 30.54in /  1034.1hPa Calm     58% 0.00in /  0mm 0.0 W/m2 CLR
18:54 17.3 °F /  -8.2 °C 4.7 °F /  -15.2 °C 30.54in /  1034.1hPa ENE 1.2mph /  1.9km/h 1.2mph /  1.9km/h 57% 0.00in /  0mm 0.0 W/m2 CLR
18:59 17.1 °F /  -8.3 °C 5.2 °F /  -14.9 °C 30.54in /  1034.1hPa Calm   0.1mph /  0.2km/h 59% 0.00in /  0mm 0.0 W/m2 CLR
19:04 17.0 °F /  -8.3 °C 5.1 °F /  -14.9 °C 30.54in /  1034.1hPa Calm     59% 0.00in /  0mm 0.0 W/m2 SCT
19:05 17.0 °F /  -8.3 °C 5.1 °F /  -14.9 °C 30.54in /  1034.1hPa Calm     59% 0.00in /  0mm 0.0 W/m2 SCT
19:10 16.8 °F /  -8.4 °C 5.7 °F /  -14.6 °C 30.54in /  1034.1hPa Calm     61% 0.00in /  0mm 0.0 W/m2 SCT
19:14 16.7 °F /  -8.5 °C 5.9 °F /  -14.5 °C 30.54in /  1034.1hPa Calm     62% 0.00in /  0mm 0.0 W/m2 SCT
19:16 16.7 °F /  -8.5 °C 5.9 °F /  -14.5 °C 30.54in /  1034.1hPa Calm     62% 0.00in /  0mm 0.0 W/m2 SCT
19:21 16.5 °F /  -8.6 °C 5.7 °F /  -14.6 °C 30.53in /  1033.7hPa Calm     62% 0.00in /  0mm 0.0 W/m2 SCT
19:26 16.5 °F /  -8.6 °C 5.7 °F /  -14.6 °C 30.53in /  1033.7hPa Calm     62% 0.00in /  0mm 0.0 W/m2 SCT
19:29 16.5 °F /  -8.6 °C 6.1 °F /  -14.4 °C 30.53in /  1033.7hPa Calm     63% 0.00in /  0mm 0.0 W/m2 SCT
19:33 16.4 °F /  -8.7 °C 6.7 °F /  -14.1 °C 30.53in /  1033.7hPa Calm     65% 0.00in /  0mm 0.0 W/m2 SCT
19:35 16.3 °F /  -8.7 °C 6.6 °F /  -14.1 °C 30.53in /  1033.7hPa Calm     65% 0.00in /  0mm 0.0 W/m2 SCT
19:39 16.3 °F /  -8.7 °C 6.9 °F /  -13.9 °C 30.53in /  1033.7hPa Calm     66% 0.00in /  0mm 0.0 W/m2 SCT
19:42 16.2 °F /  -8.8 °C 6.8 °F /  -14 °C 30.53in /  1033.7hPa Calm     66% 0.00in /  0mm 0.0 W/m2 SCT
19:47 16.1 °F /  -8.8 °C 6.4 °F /  -14.2 °C 30.52in /  1033.4hPa Calm     65% 0.00in /  0mm 0.0 W/m2 SCT
19:48 16.1 °F /  -8.8 °C 6.4 °F /  -14.2 °C 30.52in /  1033.4hPa Calm     65% 0.00in /  0mm 0.0 W/m2 SCT
19:53 16.0 °F /  -8.9 °C 6.6 °F /  -14.1 °C 30.52in /  1033.4hPa Calm     66% 0.00in /  0mm 0.0 W/m2 SCT
19:56 16.0 °F /  -8.9 °C 6.6 °F /  -14.1 °C 30.52in /  1033.4hPa Calm     66% 0.00in /  0mm 0.0 W/m2 SCT
20:01 15.9 °F /  -8.9 °C 6.9 °F /  -13.9 °C 30.52in /  1033.4hPa Calm     67% 0.00in /  0mm 0.0 W/m2 CLR
20:03 15.9 °F /  -8.9 °C 6.9 °F /  -13.9 °C 30.52in /  1033.4hPa Calm     67% 0.00in /  0mm 0.0 W/m2 CLR
20:07 15.8 °F /  -9 °C 6.8 °F /  -14 °C 30.52in /  1033.4hPa Calm     67% 0.00in /  0mm 0.0 W/m2 CLR
20:08 15.8 °F /  -9 °C 6.8 °F /  -14 °C 30.52in /  1033.4hPa Calm     67% 0.00in /  0mm 0.0 W/m2 CLR
20:13 15.7 °F /  -9.1 °C 6.7 °F /  -14.1 °C 30.52in /  1033.4hPa Calm     67% 0.00in /  0mm 0.0 W/m2 CLR
20:14 15.7 °F /  -9.1 °C 6.7 °F /  -14.1 °C 30.52in /  1033.4hPa Calm     67% 0.00in /  0mm 0.0 W/m2 CLR
20:17 15.7 °F /  -9.1 °C 7.0 °F /  -13.9 °C 30.52in /  1033.4hPa Calm     68% 0.00in /  0mm 0.0 W/m2 CLR
20:20 15.6 °F /  -9.1 °C 6.9 °F /  -13.9 °C 30.52in /  1033.4hPa Calm     68% 0.00in /  0mm 0.0 W/m2 CLR
20:23 15.6 °F /  -9.1 °C 7.2 °F /  -13.8 °C 30.52in /  1033.4hPa Calm     69% 0.00in /  0mm 0.0 W/m2 CLR
20:26 15.6 °F /  -9.1 °C 7.2 °F /  -13.8 °C 30.51in /  1033.1hPa Calm     69% 0.00in /  0mm 0.0 W/m2 CLR
20:28 15.6 °F /  -9.1 °C 7.2 °F /  -13.8 °C 30.51in /  1033.1hPa Calm     69% 0.00in /  0mm 0.0 W/m2 CLR
20:32 15.6 °F /  -9.1 °C 7.2 °F /  -13.8 °C 30.51in /  1033.1hPa Calm     69% 0.00in /  0mm 0.0 W/m2 CLR
20:35 15.6 °F /  -9.1 °C 7.6 °F /  -13.6 °C 30.52in /  1033.4hPa Calm     70% 0.00in /  0mm 0.0 W/m2 CLR
20:40 15.6 °F /  -9.1 °C 7.9 °F /  -13.4 °C 30.52in /  1033.4hPa Calm     71% 0.00in /  0mm 0.0 W/m2 CLR
20:41 15.6 °F /  -9.1 °C 7.9 °F /  -13.4 °C 30.52in /  1033.4hPa Calm     71% 0.00in /  0mm 0.0 W/m2 CLR
20:46 15.7 °F /  -9.1 °C 7.6 °F /  -13.6 °C 30.51in /  1033.1hPa Calm     70% 0.00in /  0mm 0.0 W/m2 CLR
20:51 15.7 °F /  -9.1 °C 8.0 °F /  -13.3 °C 30.51in /  1033.1hPa Calm     71% 0.00in /  0mm 0.0 W/m2 CLR
20:54 15.8 °F /  -9 °C 8.4 °F /  -13.1 °C 30.51in /  1033.1hPa Calm     72% 0.00in /  0mm 0.0 W/m2 CLR
20:59 15.8 °F /  -9 °C 9.0 °F /  -12.8 °C 30.50in /  1032.7hPa Calm     74% 0.00in /  0mm 0.0 W/m2 CLR
21:00 15.8 °F /  -9 °C 9.3 °F /  -12.6 °C 30.50in /  1032.7hPa Calm     75% 0.00in /  0mm 0.0 W/m2 CLR
21:02 15.8 °F /  -9 °C 9.3 °F /  -12.6 °C 30.50in /  1032.7hPa Calm     75% 0.00in /  0mm 0.0 W/m2 CLR
21:05 15.8 °F /  -9 °C 9.3 °F /  -12.6 °C 30.50in /  1032.7hPa Calm     75% 0.00in /  0mm 0.0 W/m2 CLR
21:10 15.8 °F /  -9 °C 9.6 °F /  -12.4 °C 30.50in /  1032.7hPa Calm     76% 0.00in /  0mm 0.0 W/m2 CLR
21:14 15.8 °F /  -9 °C 9.6 °F /  -12.4 °C 30.50in /  1032.7hPa Calm     76% 0.00in /  0mm 0.0 W/m2 CLR
21:19 15.8 °F /  -9 °C 10.2 °F /  -12.1 °C 30.50in /  1032.7hPa Calm     78% 0.00in /  0mm 0.0 W/m2 CLR
21:24 15.8 °F /  -9 °C 9.9 °F /  -12.3 °C 30.50in /  1032.7hPa Calm     77% 0.00in /  0mm 0.0 W/m2 CLR
21:29 15.8 °F /  -9 °C 9.9 °F /  -12.3 °C 30.50in /  1032.7hPa Calm     77% 0.00in /  0mm 0.0 W/m2 CLR
21:30 15.9 °F /  -8.9 °C 10.0 °F /  -12.2 °C 30.50in /  1032.7hPa Calm     77% 0.00in /  0mm 0.0 W/m2 CLR
21:35 16.1 °F /  -8.8 °C 10.4 °F /  -12 °C 30.50in /  1032.7hPa Calm     78% 0.00in /  0mm 0.0 W/m2 CLR
21:39 16.2 °F /  -8.8 °C 10.3 °F /  -12.1 °C 30.50in /  1032.7hPa Calm     77% 0.00in /  0mm 0.0 W/m2 CLR
21:44 16.3 °F /  -8.7 °C 10.4 °F /  -12 °C 30.49in /  1032.4hPa Calm     77% 0.00in /  0mm 0.0 W/m2 CLR
21:47 16.3 °F /  -8.7 °C 10.4 °F /  -12 °C 30.49in /  1032.4hPa Calm     77% 0.00in /  0mm 0.0 W/m2 CLR
21:48 16.3 °F /  -8.7 °C 10.4 °F /  -12 °C 30.49in /  1032.4hPa Calm     77% 0.00in /  0mm 0.0 W/m2 CLR
21:53 16.4 °F /  -8.7 °C 10.7 °F /  -11.8 °C 30.49in /  1032.4hPa Calm     78% 0.00in /  0mm 0.0 W/m2 CLR
21:54 16.4 °F /  -8.7 °C 11.0 °F /  -11.7 °C 30.49in /  1032.4hPa Calm     79% 0.00in /  0mm 0.0 W/m2 CLR
21:57 16.4 °F /  -8.7 °C 11.0 °F /  -11.7 °C 30.48in /  1032.1hPa Calm     79% 0.00in /  0mm 0.0 W/m2 CLR
21:59 16.4 °F /  -8.7 °C 11.0 °F /  -11.7 °C 30.49in /  1032.4hPa Calm     79% 0.00in /  0mm 0.0 W/m2 CLR
22:02 16.4 °F /  -8.7 °C 11.0 °F /  -11.7 °C 30.48in /  1032.1hPa Calm     79% 0.00in /  0mm 0.0 W/m2 CLR
22:05 16.4 °F /  -8.7 °C 11.0 °F /  -11.7 °C 30.49in /  1032.4hPa Calm     79% 0.00in /  0mm 0.0 W/m2 CLR
22:09 16.4 °F /  -8.7 °C 11.3 °F /  -11.5 °C 30.48in /  1032.1hPa Calm     80% 0.00in /  0mm 0.0 W/m2 CLR
22:10 16.4 °F /  -8.7 °C 11.0 °F /  -11.7 °C 30.48in /  1032.1hPa Calm     79% 0.00in /  0mm 0.0 W/m2 CLR
22:15 16.4 °F /  -8.7 °C 11.3 °F /  -11.5 °C 30.48in /  1032.1hPa Calm     80% 0.00in /  0mm 0.0 W/m2 CLR
22:16 16.4 °F /  -8.7 °C 11.3 °F /  -11.5 °C 30.48in /  1032.1hPa Calm     80% 0.00in /  0mm 0.0 W/m2 CLR
22:21 16.4 °F /  -8.7 °C 11.3 °F /  -11.5 °C 30.48in /  1032.1hPa Calm     80% 0.00in /  0mm 0.0 W/m2 CLR
22:26 16.3 °F /  -8.7 °C 10.9 °F /  -11.7 °C 30.48in /  1032.1hPa Calm     79% 0.00in /  0mm 0.0 W/m2 CLR
22:27 16.3 °F /  -8.7 °C 10.9 °F /  -11.7 °C 30.48in /  1032.1hPa Calm     79% 0.00in /  0mm 0.0 W/m2 CLR
22:30 16.3 °F /  -8.7 °C 11.2 °F /  -11.6 °C 30.48in /  1032.1hPa Calm     80% 0.00in /  0mm 0.0 W/m2 CLR
22:33 16.3 °F /  -8.7 °C 11.2 °F /  -11.6 °C 30.48in /  1032.1hPa Calm     80% 0.00in /  0mm 0.0 W/m2 CLR
22:38 16.3 °F /  -8.7 °C 10.9 °F /  -11.7 °C 30.48in /  1032.1hPa Calm     79% 0.00in /  0mm 0.0 W/m2 CLR
22:39 16.3 °F /  -8.7 °C 10.9 °F /  -11.7 °C 30.48in /  1032.1hPa Calm     79% 0.00in /  0mm 0.0 W/m2 CLR
22:41 16.3 °F /  -8.7 °C 10.9 °F /  -11.7 °C 30.48in /  1032.1hPa Calm     79% 0.00in /  0mm 0.0 W/m2 CLR
22:45 16.3 °F /  -8.7 °C 11.2 °F /  -11.6 °C 30.47in /  1031.7hPa Calm     80% 0.00in /  0mm 0.0 W/m2 CLR
22:50 16.4 °F /  -8.7 °C 11.3 °F /  -11.5 °C 30.47in /  1031.7hPa Calm     80% 0.00in /  0mm 0.0 W/m2 CLR
22:55 16.4 °F /  -8.7 °C 11.6 °F /  -11.3 °C 30.47in /  1031.7hPa Calm     81% 0.00in /  0mm 0.0 W/m2 CLR
22:57 16.5 °F /  -8.6 °C 11.7 °F /  -11.3 °C 30.47in /  1031.7hPa Calm     81% 0.00in /  0mm 0.0 W/m2 CLR
23:02 16.5 °F /  -8.6 °C 11.7 °F /  -11.3 °C 30.47in /  1031.7hPa Calm     81% 0.00in /  0mm 0.0 W/m2 CLR
23:03 16.5 °F /  -8.6 °C 11.7 °F /  -11.3 °C 30.47in /  1031.7hPa Calm     81% 0.00in /  0mm 0.0 W/m2 CLR
23:04 16.5 °F /  -8.6 °C 11.7 °F /  -11.3 °C 30.47in /  1031.7hPa Calm     81% 0.00in /  0mm 0.0 W/m2 CLR
23:09 16.5 °F /  -8.6 °C 11.7 °F /  -11.3 °C 30.46in /  1031.4hPa Calm     81% 0.00in /  0mm 0.0 W/m2 CLR
23:12 16.5 °F /  -8.6 °C 11.4 °F /  -11.4 °C 30.46in /  1031.4hPa Calm     80% 0.00in /  0mm 0.0 W/m2 CLR
23:16 16.5 °F /  -8.6 °C 11.4 °F /  -11.4 °C 30.46in /  1031.4hPa Calm     80% 0.00in /  0mm 0.0 W/m2 CLR
23:21 16.4 °F /  -8.7 °C 11.6 °F /  -11.3 °C 30.46in /  1031.4hPa Calm     81% 0.00in /  0mm 0.0 W/m2 CLR
23:23 16.4 °F /  -8.7 °C 11.3 °F /  -11.5 °C 30.46in /  1031.4hPa Calm     80% 0.00in /  0mm 0.0 W/m2 CLR
23:26 16.4 °F /  -8.7 °C 11.6 °F /  -11.3 °C 30.46in /  1031.4hPa Calm     81% 0.00in /  0mm 0.0 W/m2 CLR
23:31 16.4 °F /  -8.7 °C 11.6 °F /  -11.3 °C 30.46in /  1031.4hPa Calm     81% 0.00in /  0mm 0.0 W/m2 CLR
23:36 16.4 °F /  -8.7 °C 11.6 °F /  -11.3 °C 30.45in /  1031hPa ENE 1.2mph /  1.9km/h 1.2mph /  1.9km/h 81% 0.00in /  0mm 0.0 W/m2 CLR
23:42 16.4 °F /  -8.7 °C 11.6 °F /  -11.3 °C 30.45in /  1031hPa Calm     81% 0.00in /  0mm 0.0 W/m2 CLR
23:43 16.4 °F /  -8.7 °C 11.6 °F /  -11.3 °C 30.45in /  1031hPa ENE 1.2mph /  1.9km/h 1.2mph /  1.9km/h 81% 0.00in /  0mm 0.0 W/m2 CLR
23:48 16.4 °F /  -8.7 °C 11.9 °F /  -11.2 °C 30.44in /  1030.7hPa ENE 1.2mph /  1.9km/h 1.2mph /  1.9km/h 82% 0.00in /  0mm 0.0 W/m2 CLR
23:49 16.4 °F /  -8.7 °C 11.9 °F /  -11.2 °C 30.44in /  1030.7hPa ENE 2.3mph /  3.7km/h 2.3mph /  3.7km/h 82% 0.00in /  0mm 0.0 W/m2 CLR
23:54 16.3 °F /  -8.7 °C 11.5 °F /  -11.4 °C 30.44in /  1030.7hPa Calm     81% 0.00in /  0mm 0.0 W/m2 CLR
23:55 16.3 °F /  -8.7 °C 11.5 °F /  -11.4 °C 30.44in /  1030.7hPa Calm     81% 0.00in /  0mm 0.0 W/m2 CLR
23:56 16.3 °F /  -8.7 °C 11.5 °F /  -11.4 °C 30.44in /  1030.7hPa Calm     81% 0.00in /  0mm 0.0 W/m2 CLR
Bruceton, TN. NWS Weather Forecast
Compliments of:  Weather Underground - 6 mb

Interesting Weather Facts
TENNESSEE RECORD TEMPERATURE EXTREMES
Mountain City, TN. (elevation: 2471 feet ASL) recorded the coldest day at -32°F (-36°C) on 30 December 1917. Perryville, TN. (elevation: 387 feet ASL) recorded the Hottest Day at 113°F (45°C) on 09 August 1930.